FW4143 Weather Reports


Display with metric or nautical units.
time (UTC)temp
F
wind
direction
speed
MPH
gust
MPH
rain 1hr
in
rain 24hr
in
rain mn
in
humidity
%
barometer
mb
20260904085404 80 31 2.0 5.0 0.00 0.00 0.00 1 1013.5
20260904085305 80 32 2.0 5.0 0.00 0.00 0.00 1 1013.4
20260904085203 80 32 2.0 5.0 0.00 0.00 0.00 1 1013.5
20260904085103 80 34 2.0 5.0 0.00 0.00 0.00 1 1013.4
20260904085024 80 34 2.0 5.0 0.00 0.00 0.00 1 1013.5
20260904084903 80 35 2.0 5.0 0.00 0.00 0.00 1 1013.4
20260904084803 80 36 2.0 5.0 0.00 0.00 0.00 1 1013.4
20260904084703 80 37 2.0 5.0 0.00 0.00 0.00 1 1013.4
20260904084603 80 37 2.0 6.0 0.00 0.00 0.00 1 1013.4
20260904084503 80 38 2.0 6.0 0.00 0.00 0.00 1 1013.4
20260904084403 80 39 3.0 6.0 0.00 0.00 0.00 1 1013.4
20260904084303 80 39 3.0 6.0 0.00 0.00 0.00 1 1013.4
20260904084205 80 39 3.0 6.0 0.00 0.00 0.00 1 1013.4
20260904084103 80 40 3.0 6.0 0.00 0.00 0.00 1 1013.3
20260904084003 80 40 3.0 6.0 0.00 0.00 0.00 1 1013.3
20260904083903 80 41 3.0 6.0 0.00 0.00 0.00 1 1013.3
20260904083804 80 42 3.0 6.0 0.00 0.00 0.00 1 1013.3
20260904083703 80 42 3.0 6.0 0.00 0.00 0.00 1 1013.2
20260904083603 80 44 2.0 6.0 0.00 0.00 0.00 1 1013.2
20260904083504 80 43 2.0 6.0 0.00 0.00 0.00 1 1013.2
20260904083403 80 42 2.0 6.0 0.00 0.00 0.00 1 1013.2
20260904083303 80 43 2.0 5.0 0.00 0.00 0.00 1 1013.2
20260904083224 80 43 2.0 4.0 0.00 0.00 0.00 1 1013.2
20260904083103 80 43 2.0 5.0 0.00 0.00 0.00 1 1013.2
20260904083003 80 42 2.0 5.0 0.00 0.00 0.00 1 1013.2
20260904082924 80 42 2.0 5.0 0.00 0.00 0.00 1 1013.2
20260904082803 80 42 2.0 5.0 0.00 0.00 0.00 1 1013.2
20260904082703 80 42 2.0 5.0 0.00 0.00 0.00 1 1013.2
20260904082603 80 42 2.0 5.0 0.00 0.00 0.00 1 1013.3
20260904082503 80 43 3.0 5.0 0.00 0.00 0.00 1 1013.3
20260904082403 80 44 3.0 5.0 0.00 0.00 0.00 1 1013.3
20260904082306 80 45 3.0 5.0 0.00 0.00 0.00 1 1013.3
20260904082204 80 47 3.0 5.0 0.00 0.00 0.00 1 1013.3
20260904082103 80 45 3.0 6.0 0.00 0.00 0.00 1 1013.3
20260904082003 80 45 3.0 6.0 0.00 0.00 0.00 1 1013.3
20260904081903 80 44 3.0 8.0 0.00 0.00 0.00 1 1013.3
20260904081824 80 42 3.0 8.0 0.00 0.00 0.00 1 1013.3
20260904081724 80 41 3.0 8.0 0.00 0.00 0.00 1 1013.3
20260904081603 80 39 3.0 8.0 0.00 0.00 0.00 1 1013.3
20260904081503 80 35 3.0 8.0 0.00 0.00 0.00 1 1013.3
20260904081403 80 32 3.0 8.0 0.00 0.00 0.00 1 1013.3
20260904081324 80 30 3.0 8.0 0.00 0.00 0.00 1 1013.3
20260904081204 80 27 3.0 8.0 0.00 0.00 0.00 1 1013.3
20260904081104 80 27 3.0 8.0 0.00 0.00 0.00 1 1013.3
20260904081003 80 26 3.0 8.0 0.00 0.00 0.00 1 1013.3
20260904080924 80 25 2.0 8.0 0.00 0.00 0.00 1 1013.3
20260904080804 80 25 2.0 6.0 0.00 0.00 0.00 1 1013.3
20260904080724 80 26 2.0 6.0 0.00 0.00 0.00 1 1013.3
20260904080603 80 26 2.0 6.0 0.00 0.00 0.00 1 1013.2
20260904080504 80 28 2.0 6.0 0.00 0.00 0.00 1 1013.2
20260904080404 80 30 2.0 6.0 0.00 0.00 0.00 1 1013.2
20260904080303 80 36 2.0 6.0 0.00 0.00 0.00 1 1013.2
20260904080203 80 36 3.0 9.0 0.00 0.00 0.00 1 1013.3
20260904080003 80 36 3.0 9.0 0.00 0.00 0.00 1 1013.3
20260904075924 80 36 3.0 9.0 0.00 0.00 0.00 1 1013.2
20260904075803 80 36 3.0 9.0 0.00 0.00 0.00 1 1013.2
20260904075724 80 36 3.0 9.0 0.00 0.00 0.00 1 1013.2
20260904075624 80 36 3.0 9.0 0.00 0.00 0.00 1 1013.2
20260904075503 80 38 3.0 9.0 0.00 0.00 0.00 1 1013.2
20260904075403 80 38 3.0 9.0 0.00 0.00 0.00 1 1013.2
20260904075306 80 38 3.0 9.0 0.00 0.00 0.00 1 1013.3
20260904075225 80 37 3.0 7.0 0.00 0.00 0.00 1 1013.2
20260904075103 80 40 3.0 6.0 0.00 0.00 0.00 1 1013.2
20260904075004 80 41 3.0 6.0 0.00 0.00 0.00 1 1013.3
20260904074924 80 43 3.0 6.0 0.00 0.00 0.00 1 1013.2
20260904074803 80 47 3.0 6.0 0.00 0.00 0.00 1 1013.3
20260904074703 80 48 3.0 6.0 0.00 0.00 0.00 1 1013.2
20260904074603 80 48 3.0 6.0 0.00 0.00 0.00 1 1013.2
20260904074504 80 49 3.0 6.0 0.00 0.00 0.00 1 1013.2
20260904074403 80 49 2.0 6.0 0.00 0.00 0.00 1 1013.2
20260904074303 80 47 2.0 6.0 0.00 0.00 0.00 1 1013.3
20260904074224 80 47 2.0 6.0 0.00 0.00 0.00 1 1013.3
20260904074103 80 48 3.0 5.0 0.00 0.00 0.00 1 1013.3
20260904074024 80 47 3.0 5.0 0.00 0.00 0.00 1 1013.3
20260904073903 80 41 3.0 6.0 0.00 0.00 0.00 1 1013.2
20260904073803 81 38 3.0 6.0 0.00 0.00 0.00 1 1013.3
20260904073703 81 39 3.0 6.0 0.00 0.00 0.00 1 1013.2
20260904073603 81 39 3.0 6.0 0.00 0.00 0.00 1 1013.2
20260904073503 81 39 3.0 7.0 0.00 0.00 0.00 1 1013.2
20260904073403 81 39 3.0 7.0 0.00 0.00 0.00 1 1013.2
20260904073303 81 39 4.0 7.0 0.00 0.00 0.00 1 1013.3
20260904073204 81 39 4.0 7.0 0.00 0.00 0.00 1 1013.3
20260904073124 81 39 4.0 7.0 0.00 0.00 0.00 1 1013.3
20260904073003 81 39 4.0 7.0 0.00 0.00 0.00 1 1013.3
20260904072903 81 42 3.0 7.0 0.00 0.00 0.00 1 1013.3
20260904072803 81 44 3.0 7.0 0.00 0.00 0.00 1 1013.4
20260904072703 81 43 3.0 7.0 0.00 0.00 0.00 1 1013.4
20260904072603 81 43 3.0 7.0 0.00 0.00 0.00 1 1013.4
20260904072503 81 43 3.0 7.0 0.00 0.00 0.00 1 1013.4
20260904072403 81 43 3.0 7.0 0.00 0.00 0.00 1 1013.4
20260904072306 81 44 2.0 7.0 0.00 0.00 0.00 1 1013.4
20260904072203 81 42 3.0 7.0 0.00 0.00 0.00 1 1013.4
20260904072103 81 41 2.0 6.0 0.00 0.00 0.00 1 1013.4
20260904072024 81 41 3.0 6.0 0.00 0.00 0.00 1 1013.5
20260904071903 81 40 3.0 8.0 0.00 0.00 0.00 1 1013.5
20260904071803 81 39 3.0 8.0 0.00 0.00 0.00 1 1013.5
20260904071703 81 38 3.0 8.0 0.00 0.00 0.00 1 1013.5
20260904071603 81 39 3.0 8.0 0.00 0.00 0.00 1 1013.5
20260904071503 81 40 3.0 8.0 0.00 0.00 0.00 1 1013.6
20260904071403 81 41 3.0 8.0 0.00 0.00 0.00 1 1013.6
20260904071303 81 42 3.0 8.0 0.00 0.00 0.00 1 1013.5
20260904071203 81 44 3.0 8.0 0.00 0.00 0.00 1 1013.6
20260904071105 81 45 3.0 8.0 0.00 0.00 0.00 1 1013.6
20260904071024 81 46 3.0 8.0 0.00 0.00 0.00 1 1013.6
20260904070903 81 47 3.0 10.0 0.00 0.00 0.00 1 1013.6
20260904070803 81 48 3.0 10.0 0.00 0.00 0.00 1 1013.6
20260904070703 81 49 3.0 10.0 0.00 0.00 0.00 1 1013.6
20260904070603 81 50 3.0 10.0 0.00 0.00 0.00 1 1013.6
20260904070503 81 50 3.0 10.0 0.00 0.00 0.00 1 1013.6
20260904070403 81 48 3.0 10.0 0.00 0.00 0.00 1 1013.6
20260904070303 81 46 3.0 10.0 0.00 0.00 0.00 1 1013.6
20260904070203 81 45 3.0 10.0 0.00 0.00 0.00 1 1013.6
20260904070103 81 42 3.0 10.0 0.00 0.00 0.00 1 1013.6
20260904070024 81 42 3.0 10.0 0.00 0.00 0.00 1 1013.7
20260904065924 81 43 3.0 7.0 0.00 0.00 0.00 1 1013.6
20260904065803 81 41 3.0 7.0 0.00 0.00 0.00 1 1013.6
20260904065703 81 41 3.0 7.0 0.00 0.00 0.00 1 1013.6
20260904065603 81 40 3.0 7.0 0.00 0.00 0.00 1 1013.6
20260904065524 81 40 3.0 7.0 0.00 0.00 0.00 1 1013.7
20260904065403 81 41 3.0 7.0 0.00 0.00 0.00 1 1013.6
20260904065306 81 42 3.0 7.0 0.00 0.00 0.00 1 1013.6
20260904065203 81 44 3.0 7.0 0.00 0.00 0.00 1 1013.7
20260904065124 81 44 3.0 7.0 0.00 0.00 0.00 1 1013.7
20260904065003 81 44 3.0 6.0 0.00 0.00 0.00 1 1013.6
20260904064924 81 44 3.0 6.0 0.00 0.00 0.00 1 1013.7
20260904064803 81 44 3.0 8.0 0.00 0.00 0.00 1 1013.7
20260904064704 81 44 3.0 8.0 0.00 0.00 0.00 1 1013.7
20260904064603 81 42 3.0 8.0 0.00 0.00 0.00 1 1013.7
20260904064524 81 42 3.0 8.0 0.00 0.00 0.00 1 1013.7
20260904064403 81 41 3.0 8.0 0.00 0.00 0.00 1 1013.7
20260904064303 81 39 4.0 8.0 0.00 0.00 0.00 1 1013.7
20260904064203 81 40 4.0 8.0 0.00 0.00 0.00 1 1013.7
20260904064103 81 40 4.0 8.0 0.00 0.00 0.00 1 1013.6
20260904064003 81 40 4.0 8.0 0.00 0.00 0.00 1 1013.7
20260904063904 81 41 4.0 8.0 0.00 0.00 0.00 1 1013.7
20260904063803 81 42 4.0 8.0 0.00 0.00 0.00 1 1013.7
20260904063703 81 41 4.0 8.0 0.00 0.00 0.00 1 1013.6
20260904063624 81 43 4.0 8.0 0.00 0.00 0.00 1 1013.6
20260904063503 81 43 4.0 8.0 0.00 0.00 0.00 1 1013.7
20260904063403 81 39 4.0 8.0 0.00 0.00 0.00 1 1013.7
20260904063303 81 32 3.0 8.0 0.00 0.00 0.00 1 1013.7
20260904063203 81 29 3.0 8.0 0.00 0.00 0.00 1 1013.7
20260904063103 81 28 3.0 8.0 0.00 0.00 0.00 1 1013.7
20260904063024 81 26 3.0 8.0 0.00 0.00 0.00 1 1013.7
20260904062926 81 25 3.0 8.0 0.00 0.00 0.00 1 1013.7
20260904062803 81 23 3.0 8.0 0.00 0.00 0.00 1 1013.7
20260904062703 81 25 3.0 8.0 0.00 0.00 0.00 1 1013.6
20260904062603 81 26 4.0 8.0 0.00 0.00 0.00 1 1013.7
20260904062503 81 23 4.0 8.0 0.00 0.00 0.00 1 1013.8
20260904062403 81 27 4.0 8.0 0.00 0.00 0.00 1 1013.7
20260904062306 81 32 4.0 8.0 0.00 0.00 0.00 1 1013.7
20260904062203 81 33 4.0 8.0 0.00 0.00 0.00 1 1013.7
20260904062125 81 34 4.0 8.0 0.00 0.00 0.00 1 1013.7
20260904062003 81 34 4.0 8.0 0.00 0.00 0.00 1 1013.7
20260904061903 81 35 4.0 8.0 0.00 0.00 0.00 1 1013.8
20260904061824 81 35 4.0 8.0 0.00 0.00 0.00 1 1013.6
20260904061703 81 33 4.0 10.0 0.00 0.00 0.00 1 1013.7
20260904061624 81 33 4.0 10.0 0.00 0.00 0.00 1 1013.7
20260904061503 81 31 4.0 10.0 0.00 0.00 0.00 1 1013.7
20260904061425 81 32 4.0 10.0 0.00 0.00 0.00 1 1013.6
20260904061303 81 31 4.0 10.0 0.00 0.00 0.00 1 1013.6
20260904061203 81 29 4.0 10.0 0.00 0.00 0.00 1 1013.7
20260904061103 81 28 4.0 10.0 0.00 0.00 0.00 1 1013.7
20260904061004 81 28 4.0 10.0 0.00 0.00 0.00 1 1013.7
20260904060903 81 26 4.0 10.0 0.00 0.00 0.00 1 1013.7
20260904060803 81 24 4.0 10.0 0.00 0.00 0.00 1 1013.7
20260904060703 81 24 4.0 9.0 0.00 0.00 0.00 1 1013.6
20260904060603 81 19 4.0 10.0 0.00 0.00 0.00 1 1013.6
20260904060524 81 22 5.0 10.0 0.00 0.00 0.00 1 1013.6
20260904060403 81 25 5.0 10.0 0.00 0.00 0.00 1 1013.6
20260904060303 81 25 5.0 10.0 0.00 0.00 0.00 1 1013.6
20260904060203 81 25 5.0 10.0 0.00 0.00 0.00 1 1013.6
20260904060103 81 26 5.0 10.0 0.00 0.00 0.00 1 1013.6
20260904060003 81 25 5.0 10.0 0.00 0.00 0.00 1 1013.6
20260904055903 81 24 5.0 10.0 0.00 0.00 0.00 1 1013.7
20260904055803 81 24 5.0 11.0 0.00 0.00 0.00 1 1013.6
20260904055703 81 24 5.0 11.0 0.00 0.00 0.00 1 1013.6
20260904055603 81 28 5.0 11.0 0.00 0.00 0.00 1 1013.6
20260904055524 81 28 5.0 11.0 0.00 0.00 0.00 1 1013.6
20260904055403 81 28 4.0 11.0 0.00 0.00 0.00 1 1013.6
20260904055306 81 31 4.0 11.0 0.00 0.00 0.00 1 1013.6
20260904055206 81 32 4.0 11.0 0.00 0.00 0.00 1 1013.7
20260904055124 81 32 4.0 11.0 0.00 0.00 0.00 1 1013.6
20260904055004 81 31 4.0 11.0 0.00 0.00 0.00 1 1013.7
20260904054903 81 32 4.0 11.0 0.00 0.00 0.00 1 1013.7
20260904054824 81 33 4.0 7.0 0.00 0.00 0.00 1 1013.7
20260904054703 81 36 4.0 7.0 0.00 0.00 0.00 1 1013.7
20260904054603 81 37 4.0 7.0 0.00 0.00 0.00 1 1013.6
20260904054503 81 36 4.0 7.0 0.00 0.00 0.00 1 1013.7
20260904054424 81 36 4.0 8.0 0.00 0.00 0.00 1 1013.7
20260904054303 81 36 4.0 8.0 0.00 0.00 0.00 1 1013.7
20260904054203 81 33 4.0 8.0 0.00 0.00 0.00 1 1013.7
20260904054103 81 33 4.0 8.0 0.00 0.00 0.00 1 1013.6
20260904054003 81 30 4.0 8.0 0.00 0.00 0.00 1 1013.7
20260904053903 81 29 4.0 8.0 0.00 0.00 0.00 1 1013.6
20260904053803 81 29 4.0 8.0 0.00 0.00 0.00 1 1013.6
20260904053703 81 28 4.0 8.0 0.00 0.00 0.00 1 1013.6
20260904053603 81 24 4.0 8.0 0.00 0.00 0.00 1 1013.6
20260904053503 81 26 4.0 8.0 0.00 0.00 0.00 1 1013.6
20260904053403 82 26 4.0 11.0 0.00 0.00 0.00 1 1013.6
20260904053303 82 25 4.0 11.0 0.00 0.00 0.00 1 1013.5
20260904053203 82 26 4.0 11.0 0.00 0.00 0.00 1 1013.6
20260904053103 82 25 4.0 11.0 0.00 0.00 0.00 1 1013.6
20260904053003 82 31 4.0 11.0 0.00 0.00 0.00 1 1013.6
20260904052903 82 29 4.0 11.0 0.00 0.00 0.00 1 1013.6
20260904052804 82 24 4.0 11.0 0.00 0.00 0.00 1 1013.5
20260904052703 82 21 4.0 11.0 0.00 0.00 0.00 1 1013.6
20260904052603 82 23 4.0 11.0 0.00 0.00 0.00 1 1013.6
20260904052503 82 21 4.0 11.0 0.00 0.00 0.00 1 1013.6
20260904052403 82 20 4.0 9.0 0.00 0.00 0.00 1 1013.6
20260904052306 82 18 4.0 10.0 0.00 0.00 0.00 1 1013.6
20260904052203 82 18 4.0 10.0 0.00 0.00 0.00 1 1013.6
20260904052103 82 16 4.0 10.0 0.00 0.00 0.00 1 1013.6
20260904052003 82 16 4.0 10.0 0.00 0.00 0.00 1 1013.6
20260904051905 82 22 4.0 10.0 0.00 0.00 0.00 1 1013.6
20260904051803 82 28 4.0 10.0 0.00 0.00 0.00 1 1013.5
20260904051724 82 28 4.0 10.0 0.00 0.00 0.00 1 1013.5
20260904051603 82 28 4.0 10.0 0.00 0.00 0.00 1 1013.5
20260904051504 82 30 4.0 10.0 0.00 0.00 0.00 1 1013.5
20260904051403 82 28 4.0 11.0 0.00 0.00 0.00 1 1013.5
20260904051303 82 31 4.0 11.0 0.00 0.00 0.00 1 1013.5
20260904051203 82 27 4.0 11.0 0.00 0.00 0.00 1 1013.5
20260904051103 82 28 4.0 11.0 0.00 0.00 0.00 1 1013.5
20260904051003 82 24 5.0 11.0 0.00 0.00 0.00 1 1013.5
20260904050903 82 16 5.0 12.0 0.00 0.00 0.00 1 1013.5
20260904050803 82 17 5.0 12.0 0.00 0.00 0.00 1 1013.5
20260904050703 82 16 5.0 12.0 0.00 0.00 0.00 1 1013.5
20260904050603 82 16 5.0 12.0 0.00 0.00 0.00 1 1013.5
20260904050503 82 9 5.0 12.0 0.00 0.00 0.00 1 1013.5
20260904050403 82 360 5.0 12.0 0.00 0.00 0.00 1 1013.5
20260904050324 82 355 5.0 12.0 0.00 0.00 0.00 1 1013.5
20260904050224 82 348 5.0 12.0 0.00 0.00 0.00 1 1013.5
20260904050124 82 345 5.0 12.0 0.00 0.00 0.00 1 1013.5
20260904050004 82 343 4.0 12.0 0.00 0.00 0.00 1 1013.4
20260904045904 82 351 4.0 11.0 0.00 0.00 0.00 1 1013.4
20260904045803 82 347 4.0 11.0 0.00 0.00 0.00 1 1013.5
20260904045703 82 339 4.0 8.0 0.00 0.00 0.00 1 1013.4
20260904045603 82 340 4.0 8.0 0.00 0.00 0.00 1 1013.5
20260904045503 82 348 4.0 8.0 0.00 0.00 0.00 1 1013.5
20260904045403 82 360 4.0 9.0 0.00 0.00 0.00 1 1013.5
20260904045306 82 7 4.0 9.0 0.00 0.00 0.00 1 1013.5
20260904045203 82 11 5.0 9.0 0.00 0.00 0.00 1 1013.5
20260904045103 82 11 5.0 11.0 0.00 0.00 0.00 1 1013.5
20260904045024 82 11 5.0 12.0 0.00 0.00 0.00 1 1013.5
20260904044904 82 10 5.0 12.0 0.00 0.00 0.00 1 1013.5
20260904044803 82 6 5.0 12.0 0.00 0.00 0.00 1 1013.6
20260904044703 82 9 5.0 12.0 0.00 0.00 0.00 1 1013.5
20260904044603 82 9 5.0 12.0 0.00 0.00 0.00 1 1013.5
20260904044503 82 11 5.0 12.0 0.00 0.00 0.00 1 1013.6
20260904044403 82 15 5.0 12.0 0.00 0.00 0.00 1 1013.5
20260904044303 82 17 5.0 12.0 0.00 0.00 0.00 1 1013.5
20260904044203 82 13 5.0 12.0 0.00 0.00 0.00 1 1013.6
20260904044104 82 12 5.0 12.0 0.00 0.00 0.00 1 1013.6
20260904044003 82 11 4.0 11.0 0.00 0.00 0.00 1 1013.6
20260904043904 82 9 4.0 10.0 0.00 0.00 0.00 1 1013.6
20260904043803 82 15 4.0 9.0 0.00 0.00 0.00 1 1013.6
20260904043703 82 21 4.0 8.0 0.00 0.00 0.00 1 1013.5
20260904043603 82 19 4.0 8.0 0.00 0.00 0.00 1 1013.5
20260904043503 82 10 4.0 8.0 0.00 0.00 0.00 1 1013.5
20260904043403 82 2 4.0 8.0 0.00 0.00 0.00 1 1013.5
20260904043303 82 355 3.0 8.0 0.00 0.00 0.00 1 1013.5
20260904043203 82 354 3.0 8.0 0.00 0.00 0.00 1 1013.5
20260904043103 82 347 4.0 10.0 0.00 0.00 0.00 1 1013.4
20260904043003 82 345 4.0 10.0 0.00 0.00 0.00 1 1013.4
20260904042924 82 340 4.0 10.0 0.00 0.00 0.00 1 1013.4
20260904042803 82 336 4.0 10.0 0.00 0.00 0.00 1 1013.4
20260904042724 82 334 4.0 10.0 0.00 0.00 0.00 1 1013.4
20260904042603 82 334 5.0 10.0 0.00 0.00 0.00 1 1013.4
20260904042524 82 340 5.0 10.0 0.00 0.00 0.00 1 1013.4
20260904042424 82 345 5.0 10.0 0.00 0.00 0.00 1 1013.4
20260904042306 82 343 5.0 10.0 0.00 0.00 0.00 1 1013.4
20260904042203 82 352 5.0 10.0 0.00 0.00 0.00 1 1013.4
20260904042124 82 357 5.0 10.0 0.00 0.00 0.00 1 1013.4
20260904042003 82 2 4.0 10.0 0.00 0.00 0.00 1 1013.4
20260904041903 82 10 4.0 10.0 0.00 0.00 0.00 1 1013.4
20260904041824 82 7 4.0 10.0 0.00 0.00 0.00 1 1013.5
20260904041703 82 11 4.0 10.0 0.00 0.00 0.00 1 1013.5
20260904041603 82 13 4.0 10.0 0.00 0.00 0.00 1 1013.5
20260904041503 82 12 4.0 10.0 0.00 0.00 0.00 1 1013.4
20260904041403 82 9 5.0 10.0 0.00 0.00 0.00 1 1013.5
20260904041303 82 6 5.0 10.0 0.00 0.00 0.00 1 1013.4
20260904041203 82 2 5.0 10.0 0.00 0.00 0.00 1 1013.4
20260904041103 82 357 5.0 10.0 0.00 0.00 0.00 1 1013.4
20260904041003 82 354 5.0 11.0 0.00 0.00 0.00 1 1013.4
20260904040903 82 349 5.0 11.0 0.00 0.00 0.00 1 1013.4
20260904040803 82 343 5.0 11.0 0.00 0.00 0.00 1 1013.4
20260904040703 82 338 5.0 11.0 0.00 0.00 0.00 1 1013.4
20260904040603 82 331 5.0 11.0 0.00 0.00 0.00 1 1013.4
20260904040503 82 327 6.0 11.0 0.00 0.00 0.00 1 1013.4
20260904040403 82 325 5.0 11.0 0.00 0.00 0.00 1 1013.5
20260904040324 82 327 5.0 11.0 0.00 0.00 0.00 1 1013.5
20260904040203 82 326 5.0 11.0 0.00 0.00 0.00 1 1013.4
20260904040103 82 328 5.0 11.0 0.00 0.00 0.00 1 1013.5
20260904040004 82 336 5.0 12.0 0.00 0.00 0.00 1 1013.4
20260904035903 82 332 5.0 12.0 0.00 0.00 0.00 1 1013.4
20260904035825 82 334 5.0 12.0 0.00 0.00 0.00 1 1013.4
20260904035703 82 339 5.0 12.0 0.00 0.00 0.00 1 1013.4
20260904035604 82 345 5.0 12.0 0.00 0.00 0.00 1 1013.4
20260904035503 82 349 5.0 12.0 0.00 0.00 0.00 1 1013.4
20260904035403 82 352 5.0 12.0 0.00 0.00 0.00 1 1013.4
20260904035306 82 342 5.0 12.0 0.00 0.00 0.00 1 1013.3
20260904035203 82 342 5.0 12.0 0.00 0.00 0.00 1 1013.4
20260904035103 82 339 5.0 12.0 0.00 0.00 0.00 1 1013.3
20260904035003 82 334 5.0 12.0 0.00 0.00 0.00 1 1013.3
20260904034926 82 335 5.0 12.0 0.00 0.00 0.00 1 1013.3
20260904034805 82 329 5.0 12.0 0.00 0.00 0.00 1 1013.3
20260904034703 82 335 5.0 12.0 0.00 0.00 0.00 1 1013.3
20260904034603 82 334 5.0 12.0 0.00 0.00 0.00 1 1013.2
20260904034503 82 330 5.0 12.0 0.00 0.00 0.00 1 1013.3
20260904034403 82 327 5.0 12.0 0.00 0.00 0.00 1 1013.3
20260904034303 82 329 5.0 12.0 0.00 0.00 0.00 1 1013.2
20260904034203 82 322 5.0 12.0 0.00 0.00 0.00 1 1013.3
20260904034103 82 322 5.0 12.0 0.00 0.00 0.00 1 1013.3
20260904034003 82 323 4.0 11.0 0.00 0.00 0.00 1 1013.3
20260904033903 82 336 4.0 10.0 0.00 0.00 0.00 1 1013.3
20260904033803 82 341 4.0 10.0 0.00 0.00 0.00 1 1013.3
20260904033703 82 337 5.0 10.0 0.00 0.00 0.00 1 1013.3
20260904033603 82 332 5.0 10.0 0.00 0.00 0.00 1 1013.3
20260904033503 82 329 4.0 9.0 0.00 0.00 0.00 1 1013.3
20260904033424 82 331 4.0 9.0 0.00 0.00 0.00 1 1013.3
20260904033303 82 340 4.0 9.0 0.00 0.00 0.00 1 1013.3
20260904033203 82 347 4.0 9.0 0.00 0.00 0.00 1 1013.3
20260904033103 82 345 4.0 9.0 0.00 0.00 0.00 1 1013.3
20260904033024 82 343 4.0 9.0 0.00 0.00 0.00 1 1013.3
20260904032903 82 329 4.0 9.0 0.00 0.00 0.00 1 1013.3
20260904032803 82 323 3.0 9.0 0.00 0.00 0.00 1 1013.3
20260904032703 82 311 3.0 9.0 0.00 0.00 0.00 1 1013.3
20260904032603 82 310 3.0 9.0 0.00 0.00 0.00 1 1013.3
20260904032503 82 306 3.0 9.0 0.00 0.00 0.00 1 1013.3
20260904032403 82 300 3.0 9.0 0.00 0.00 0.00 1 1013.3
20260904032324 82 294 3.0 9.0 0.00 0.00 0.00 1 1013.2
20260904032203 83 281 3.0 9.0 0.00 0.00 0.00 1 1013.3
20260904032103 83 281 3.0 9.0 0.00 0.00 0.00 1 1013.3
20260904032003 83 280 3.0 9.0 0.00 0.00 0.00 1 1013.3
20260904031903 83 278 3.0 9.0 0.00 0.00 0.00 1 1013.2
20260904031803 83 280 3.0 12.0 0.00 0.00 0.00 1 1013.2
20260904031703 83 283 3.0 12.0 0.00 0.00 0.00 1 1013.2
20260904031603 83 290 3.0 12.0 0.00 0.00 0.00 1 1013.2
20260904031503 83 294 3.0 12.0 0.00 0.00 0.00 1 1013.2
20260904031403 83 291 3.0 12.0 0.00 0.00 0.00 1 1013.2
20260904031303 83 294 3.0 12.0 0.00 0.00 0.00 1 1013.3
20260904031203 83 305 3.0 12.0 0.00 0.00 0.00 1 1013.3
20260904031103 83 310 4.0 12.0 0.00 0.00 0.00 1 1013.2
20260904031003 83 317 4.0 12.0 0.00 0.00 0.00 1 1013.3
20260904030903 83 320 4.0 12.0 0.00 0.00 0.00 1 1013.2
20260904030803 83 320 4.0 13.0 0.00 0.00 0.00 1 1013.2
20260904030703 83 320 5.0 13.0 0.00 0.00 0.00 1 1013.2
20260904030603 83 318 5.0 13.0 0.00 0.00 0.00 1 1013.2
20260904030503 83 319 5.0 13.0 0.00 0.00 0.00 1 1013.2
20260904030403 83 323 5.0 13.0 0.00 0.00 0.00 1 1013.2
20260904030304 83 324 4.0 13.0 0.00 0.00 0.00 1 1013.2
20260904030203 83 316 5.0 13.0 0.00 0.00 0.00 1 1013.2
20260904030124 83 313 5.0 13.0 0.00 0.00 0.00 1 1013.2
20260904030004 83 317 5.0 13.0 0.00 0.00 0.00 1 1013.2
20260904025904 83 317 5.0 13.0 0.00 0.00 0.00 1 1013.1
20260904025803 83 321 5.0 14.0 0.00 0.00 0.00 1 1013.2
20260904025703 83 319 5.0 14.0 0.00 0.00 0.00 1 1013.1
20260904025603 83 315 5.0 14.0 0.00 0.00 0.00 1 1013.2
20260904025503 83 314 5.0 14.0 0.00 0.00 0.00 1 1013.2
20260904025403 83 314 5.0 14.0 0.00 0.00 0.00 1 1013.1
20260904025306 83 315 5.0 14.0 0.00 0.00 0.00 1 1013.1
20260904025203 83 316 5.0 14.0 0.00 0.00 0.00 1 1013.1
20260904025103 83 311 4.0 14.0 0.00 0.00 0.00 1 1013.1
20260904025003 83 307 4.0 14.0 0.00 0.00 0.00 1 1013.1
20260904024903 83 311 4.0 14.0 0.00 0.00 0.00 1 1013.1
20260904024803 83 308 4.0 14.0 0.00 0.00 0.00 1 1013.1
20260904024703 83 315 3.0 14.0 0.00 0.00 0.00 1 1013.1
20260904024603 83 314 3.0 7.0 0.00 0.00 0.00 1 1013.0
20260904024524 83 316 3.0 7.0 0.00 0.00 0.00 1 1013.1
20260904024403 83 324 3.0 7.0 0.00 0.00 0.00 1 1013.1
20260904024303 83 336 3.0 7.0 0.00 0.00 0.00 1 1013.0
20260904024203 83 345 3.0 7.0 0.00 0.00 0.00 1 1013.0
20260904024103 84 357 3.0 6.0 0.00 0.00 0.00 1 1013.0
20260904024024 84 360 3.0 6.0 0.00 0.00 0.00 1 1013.0
20260904023925 84 356 2.0 9.0 0.00 0.00 0.00 1 1013.0
20260904023824 84 353 3.0 9.0 0.00 0.00 0.00 1 1013.0
20260904023724 84 351 3.0 9.0 0.00 0.00 0.00 1 1013.0
20260904023604 84 360 3.0 9.0 0.00 0.00 0.00 1 1012.9
20260904023503 84 356 3.0 9.0 0.00 0.00 0.00 1 1012.9
20260904023403 84 350 3.0 9.0 0.00 0.00 0.00 1 1012.9
20260904023303 84 341 3.0 9.0 0.00 0.00 0.00 1 1012.9
20260904023203 84 337 4.0 9.0 0.00 0.00 0.00 1 1012.9
20260904023103 84 332 4.0 9.0 0.00 0.00 0.00 1 1012.9
20260904023003 84 331 4.0 9.0 0.00 0.00 0.00 1 1012.9
20260904022903 84 331 4.0 11.0 0.00 0.00 0.00 1 1012.9
20260904022803 84 325 4.0 11.0 0.00 0.00 0.00 1 1012.9
20260904022703 84 323 4.0 11.0 0.00 0.00 0.00 1 1012.9
20260904022603 84 322 4.0 11.0 0.00 0.00 0.00 1 1012.9
20260904022503 84 321 4.0 11.0 0.00 0.00 0.00 1 1012.8
20260904022403 84 317 4.0 11.0 0.00 0.00 0.00 1 1012.8
20260904022305 84 317 4.0 11.0 0.00 0.00 0.00 1 1012.7
20260904022203 84 314 4.0 11.0 0.00 0.00 0.00 1 1012.8
20260904022103 84 318 4.0 11.0 0.00 0.00 0.00 1 1012.8
20260904022024 84 317 4.0 11.0 0.00 0.00 0.00 1 1012.8
20260904021903 84 305 4.0 11.0 0.00 0.00 0.00 1 1012.8
20260904021803 84 304 4.0 11.0 0.00 0.00 0.00 1 1012.7
20260904021703 84 299 4.0 11.0 0.00 0.00 0.00 1 1012.7
20260904021603 84 295 4.0 11.0 0.00 0.00 0.00 1 1012.7
20260904021524 84 287 4.0 11.0 0.00 0.00 0.00 1 1012.7
20260904021403 84 296 4.0 13.0 0.00 0.00 0.00 1 1012.6
20260904021324 84 299 4.0 13.0 0.00 0.00 0.00 1 1012.7
20260904021224 84 292 4.0 13.0 0.00 0.00 0.00 1 1012.6
20260904021103 84 286 4.0 13.0 0.00 0.00 0.00 1 1012.6
20260904021024 84 288 4.0 13.0 0.00 0.00 0.00 1 1012.6
20260904020903 84 284 4.0 13.0 0.00 0.00 0.00 1 1012.6
20260904020803 84 280 4.0 13.0 0.00 0.00 0.00 1 1012.6
20260904020703 84 279 4.0 13.0 0.00 0.00 0.00 1 1012.6
20260904020603 84 279 4.0 13.0 0.00 0.00 0.00 1 1012.6
20260904020503 84 287 4.0 12.0 0.00 0.00 0.00 1 1012.6
20260904020403 84 280 4.0 9.0 0.00 0.00 0.00 1 1012.6
20260904020303 84 279 4.0 9.0 0.00 0.00 0.00 1 1012.6
20260904020203 84 282 4.0 9.0 0.00 0.00 0.00 1 1012.5
20260904020124 84 284 4.0 9.0 0.00 0.00 0.00 1 1012.5
20260904020003 84 284 4.0 9.0 0.00 0.00 0.00 1 1012.6
20260904015903 84 288 4.0 11.0 0.00 0.00 0.00 1 1012.6
20260904015803 84 291 4.0 11.0 0.00 0.00 0.00 1 1012.6
20260904015703 84 292 4.0 11.0 0.00 0.00 0.00 1 1012.5
20260904015603 84 292 4.0 11.0 0.00 0.00 0.00 1 1012.5
20260904015503 84 295 4.0 11.0 0.00 0.00 0.00 1 1012.4
20260904015403 84 297 4.0 11.0 0.00 0.00 0.00 1 1012.3
20260904015324 84 305 4.0 11.0 0.00 0.00 0.00 1 1012.4
20260904015203 84 304 4.0 11.0 0.00 0.00 0.00 1 1012.3
20260904015103 84 300 4.0 11.0 0.00 0.00 0.00 1 1012.4
20260904015024 84 301 4.0 11.0 0.00 0.00 0.00 1 1012.3
20260904014924 84 306 4.0 11.0 0.00 0.00 0.00 1 1012.4
20260904014824 84 306 4.0 11.0 0.00 0.00 0.00 1 1012.4
20260904014703 84 303 4.0 11.0 0.00 0.00 0.00 2 1012.3
20260904014603 84 299 4.0 11.0 0.00 0.00 0.00 3 1012.4
20260904014503 84 294 4.0 11.0 0.00 0.00 0.00 4 1012.3
20260904014403 84 293 4.0 11.0 0.00 0.00 0.00 5 1012.3
20260904014303 84 285 4.0 11.0 0.00 0.00 0.00 6 1012.3
20260904014203 84 284 4.0 11.0 0.00 0.00 0.00 6 1012.3
20260904014103 85 287 4.0 11.0 0.00 0.00 0.00 7 1012.3
20260904014003 85 285 4.0 11.0 0.00 0.00 0.00 8 1012.2
20260904013903 85 279 4.0 11.0 0.00 0.00 0.00 8 1012.2
20260904013803 85 280 4.0 11.0 0.00 0.00 0.00 9 1012.2
20260904013703 85 283 4.0 11.0 0.00 0.00 0.00 9 1012.1
20260904013603 85 287 4.0 11.0 0.00 0.00 0.00 10 1012.2
20260904013503 85 287 4.0 11.0 0.00 0.00 0.00 11 1012.1
20260904013424 85 285 4.0 11.0 0.00 0.00 0.00 11 1012.1
20260904013303 85 283 4.0 10.0 0.00 0.00 0.00 12 1012.1
20260904013203 85 281 4.0 10.0 0.00 0.00 0.00 13 1012.1
20260904013124 85 279 4.0 10.0 0.00 0.00 0.00 13 1012.0
20260904013003 85 280 4.0 10.0 0.00 0.00 0.00 14 1012.0
20260904012903 85 283 4.0 10.0 0.00 0.00 0.00 15 1012.0
20260904012824 85 283 4.0 10.0 0.00 0.00 0.00 15 1012.0
20260904012703 85 280 4.0 10.0 0.00 0.00 0.00 16 1011.9
20260904012603 85 280 4.0 10.0 0.00 0.00 0.00 17 1011.9
20260904012524 85 281 4.0 10.0 0.00 0.00 0.00 17 1011.9
20260904012403 85 289 5.0 10.0 0.00 0.00 0.00 17 1011.8
20260904012306 85 289 5.0 10.0 0.00 0.00 0.00 18 1011.8
20260904012203 85 291 5.0 10.0 0.00 0.00 0.00 18 1011.8
20260904012103 85 292 5.0 10.0 0.00 0.00 0.00 18 1011.8
20260904012003 85 295 4.0 10.0 0.00 0.00 0.00 19 1011.9
20260904011903 85 292 4.0 10.0 0.00 0.00 0.00 19 1011.9
20260904011803 85 294 5.0 10.0 0.00 0.00 0.00 19 1011.9
20260904011703 85 297 5.0 10.0 0.00 0.00 0.00 19 1011.9
20260904011603 85 297 4.0 10.0 0.00 0.00 0.00 20 1011.9
20260904011503 85 295 4.0 10.0 0.00 0.00 0.00 20 1011.9
20260904011403 85 288 4.0 10.0 0.00 0.00 0.00 20 1011.9
20260904011303 85 291 4.0 10.0 0.00 0.00 0.00 20 1011.9
20260904011203 85 294 4.0 13.0 0.00 0.00 0.00 21 1011.9
20260904011103 85 294 4.0 13.0 0.00 0.00 0.00 21 1011.9
20260904011003 86 294 4.0 13.0 0.00 0.00 0.00 21 1011.9
20260904010903 86 295 4.0 13.0 0.00 0.00 0.00 21 1011.9
20260904010803 86 296 3.0 13.0 0.00 0.00 0.00 21 1011.9
20260904010703 86 294 3.0 13.0 0.00 0.00 0.00 21 1011.9
20260904010603 86 290 3.0 13.0 0.00 0.00 0.00 21 1011.9
20260904010503 86 289 4.0 13.0 0.00 0.00 0.00 21 1011.9
20260904010404 86 287 4.0 13.0 0.00 0.00 0.00 21 1011.9
20260904010324 86 288 3.0 13.0 0.00 0.00 0.00 22 1011.9
20260904010203 86 276 3.0 8.0 0.00 0.00 0.00 22 1011.9
20260904010103 86 274 3.0 8.0 0.00 0.00 0.00 22 1011.9
20260904010003 86 274 3.0 8.0 0.00 0.00 0.00 22 1011.9
20260904005924 86 272 4.0 8.0 0.00 0.00 0.00 22 1011.9
20260904005803 86 270 4.0 8.0 0.00 0.00 0.00 23 1011.9
20260904005703 86 269 4.0 8.0 0.00 0.00 0.00 23 1011.9
20260904005603 86 273 4.0 9.0 0.00 0.00 0.00 23 1011.9
20260904005504 86 272 4.0 9.0 0.00 0.00 0.00 23 1011.9
20260904005403 86 273 4.0 9.0 0.00 0.00 0.00 23 1011.9
20260904005306 86 271 4.0 9.0 0.00 0.00 0.00 23 1011.9
20260904005203 86 271 4.0 9.0 0.00 0.00 0.00 24 1011.9
20260904005103 86 268 4.0 9.0 0.00 0.00 0.00 24 1011.9
20260904005003 86 268 4.0 9.0 0.00 0.00 0.00 24 1011.9
20260904004903 86 267 4.0 9.0 0.00 0.00 0.00 24 1011.9
20260904004824 86 267 4.0 9.0 0.00 0.00 0.00 24 1011.9
20260904004703 86 264 4.0 9.0 0.00 0.00 0.00 24 1012.0
20260904004624 86 260 4.0 9.0 0.00 0.00 0.00 25 1011.9
20260904004503 86 260 4.0 9.0 0.00 0.00 0.00 25 1011.9
20260904004424 86 261 4.0 9.0 0.00 0.00 0.00 25 1011.9
20260904004303 86 261 4.0 9.0 0.00 0.00 0.00 25 1011.9
20260904004203 86 262 4.0 9.0 0.00 0.00 0.00 25 1011.9
20260904004124 86 263 4.0 9.0 0.00 0.00 0.00 25 1011.9
20260904004003 86 264 4.0 10.0 0.00 0.00 0.00 26 1011.9
20260904003903 86 267 4.0 10.0 0.00 0.00 0.00 26 1011.9
20260904003805 86 266 4.0 10.0 0.00 0.00 0.00 26 1011.9
20260904003703 86 267 4.0 10.0 0.00 0.00 0.00 26 1011.9
20260904003603 86 269 4.0 10.0 0.00 0.00 0.00 26 1011.9
20260904003503 87 274 4.0 10.0 0.00 0.00 0.00 26 1012.0
20260904003403 87 274 4.0 10.0 0.00 0.00 0.00 26 1012.0
20260904003304 87 279 4.0 10.0 0.00 0.00 0.00 26 1012.0
20260904003203 87 282 4.0 10.0 0.00 0.00 0.00 26 1012.0
20260904003103 87 284 4.0 10.0 0.00 0.00 0.00 26 1012.0
20260904003003 87 284 4.0 10.0 0.00 0.00 0.00 26 1012.0
20260904002903 87 283 4.0 10.0 0.00 0.00 0.00 26 1012.0
20260904002803 87 285 4.0 10.0 0.00 0.00 0.00 26 1011.9
20260904002703 87 283 4.0 10.0 0.00 0.00 0.00 26 1011.9
20260904002603 87 280 5.0 10.0 0.00 0.00 0.00 27 1011.9
20260904002503 87 276 5.0 10.0 0.00 0.00 0.00 27 1011.9
20260904002403 87 274 5.0 10.0 0.00 0.00 0.00 27 1011.9
20260904002306 87 271 4.0 10.0 0.00 0.00 0.00 27 1011.9
20260904002203 87 270 4.0 10.0 0.00 0.00 0.00 28 1011.9
20260904002103 87 273 4.0 10.0 0.00 0.00 0.00 28 1011.8
20260904002003 87 272 4.0 10.0 0.00 0.00 0.00 28 1011.8
20260904001903 87 273 4.0 10.0 0.00 0.00 0.00 28 1011.8
20260904001803 87 272 4.0 8.0 0.00 0.00 0.00 28 1011.8
20260904001703 88 278 4.0 9.0 0.00 0.00 0.00 28 1011.7
20260904001603 88 286 4.0 12.0 0.00 0.00 0.00 29 1011.8
20260904001503 88 289 5.0 14.0 0.00 0.00 0.00 29 1011.8
20260904001403 88 293 5.0 14.0 0.00 0.00 0.00 29 1011.7
20260904001303 88 294 4.0 14.0 0.00 0.00 0.00 29 1011.7
20260904001224 88 294 5.0 14.0 0.00 0.00 0.00 29 1011.8
20260904001103 88 293 5.0 14.0 0.00 0.00 0.00 29 1011.8
20260904001003 88 295 5.0 14.0 0.00 0.00 0.00 29 1011.8
20260904000924 88 295 5.0 14.0 0.00 0.00 0.00 29 1011.8
20260904000804 88 295 5.0 14.0 0.00 0.00 0.00 29 1011.9
20260904000724 88 294 5.0 14.0 0.00 0.00 0.00 29 1011.8
20260904000624 88 289 5.0 14.0 0.00 0.00 0.00 29 1011.8
20260904000503 88 287 5.0 15.0 0.00 0.00 0.00 29 1011.8
20260904000403 88 288 6.0 15.0 0.00 0.00 0.00 29 1011.8
20260904000303 88 287 6.0 15.0 0.00 0.00 0.00 29 1011.8
20260904000204 88 285 6.0 15.0 0.00 0.00 0.00 30 1011.8
20260904000124 88 284 6.0 15.0 0.00 0.00 0.00 30 1011.7
20260904000003 88 277 6.0 15.0 0.00 0.00 0.00 30 1011.7
20260903235924 88 275 6.0 15.0 0.00 0.00 0.00 30 1011.7
20260903235803 88 277 6.0 15.0 0.00 0.00 0.00 30 1011.7
20260903235724 88 276 6.0 15.0 0.00 0.00 0.00 30 1011.7
20260903235624 88 276 6.0 15.0 0.00 0.00 0.00 30 1011.7
20260903235525 88 276 6.0 14.0 0.00 0.00 0.00 30 1011.7
20260903235403 88 271 6.0 15.0 0.00 0.00 0.00 30 1011.7
20260903235305 88 271 6.0 15.0 0.00 0.00 0.00 30 1011.7
20260903235203 88 275 6.0 15.0 0.00 0.00 0.00 30 1011.7
20260903235103 88 280 6.0 15.0 0.00 0.00 0.00 30 1011.7
20260903235003 88 283 7.0 16.0 0.00 0.00 0.00 31 1011.7
20260903234903 88 283 7.0 16.0 0.00 0.00 0.00 31 1011.7
20260903234803 88 283 7.0 16.0 0.00 0.00 0.00 31 1011.7
20260903234703 88 285 7.0 16.0 0.00 0.00 0.00 31 1011.7
20260903234603 89 286 7.0 16.0 0.00 0.00 0.00 31 1011.7
20260903234503 89 288 7.0 16.0 0.00 0.00 0.00 31 1011.7
20260903234403 89 292 7.0 18.0 0.00 0.00 0.00 31 1011.6
20260903234303 89 292 7.0 18.0 0.00 0.00 0.00 32 1011.7
20260903234204 89 290 7.0 18.0 0.00 0.00 0.00 32 1011.6
20260903234124 89 287 6.0 18.0 0.00 0.00 0.00 32 1011.6
20260903234003 89 282 6.0 18.0 0.00 0.00 0.00 32 1011.6
20260903233903 89 283 6.0 18.0 0.00 0.00 0.00 32 1011.7
20260903233803 89 284 6.0 18.0 0.00 0.00 0.00 32 1011.6
20260903233703 89 285 6.0 18.0 0.00 0.00 0.00 32 1011.6
20260903233603 90 285 6.0 18.0 0.00 0.00 0.00 32 1011.6
20260903233503 90 287 6.0 18.0 0.00 0.00 0.00 31 1011.6
20260903233403 90 283 5.0 15.0 0.00 0.00 0.00 32 1011.7
20260903233305 90 283 5.0 20.0 0.00 0.00 0.00 31 1011.6
20260903233224 90 282 5.0 20.0 0.00 0.00 0.00 31 1011.6
20260903233124 90 284 6.0 20.0 0.00 0.00 0.00 31 1011.6
20260903233003 90 289 6.0 20.0 0.00 0.00 0.00 31 1011.6
20260903232903 90 289 6.0 20.0 0.00 0.00 0.00 32 1011.6
20260903232803 90 289 6.0 20.0 0.00 0.00 0.00 31 1011.5
20260903232703 90 289 7.0 20.0 0.00 0.00 0.00 31 1011.5
20260903232603 90 292 7.0 20.0 0.00 0.00 0.00 31 1011.5
20260903232503 90 291 7.0 20.0 0.00 0.00 0.00 31 1011.5
20260903232403 90 295 7.0 20.0 0.00 0.00 0.00 31 1011.5
20260903232306 90 298 8.0 21.0 0.00 0.00 0.00 31 1011.5
20260903232203 90 301 8.0 21.0 0.00 0.00 0.00 31 1011.5
20260903232103 90 300 8.0 21.0 0.00 0.00 0.00 31 1011.4
20260903232003 90 299 8.0 21.0 0.00 0.00 0.00 31 1011.5
20260903231903 90 297 8.0 21.0 0.00 0.00 0.00 31 1011.5
20260903231803 90 296 7.0 21.0 0.00 0.00 0.00 31 1011.5
20260903231703 90 295 7.0 21.0 0.00 0.00 0.00 31 1011.5
20260903231603 90 292 7.0 21.0 0.00 0.00 0.00 31 1011.5
20260903231503 90 291 7.0 21.0 0.00 0.00 0.00 31 1011.5
20260903231403 90 287 7.0 21.0 0.00 0.00 0.00 31 1011.4
20260903231303 90 280 6.0 13.0 0.00 0.00 0.00 30 1011.4
20260903231203 90 276 7.0 13.0 0.00 0.00 0.00 30 1011.5
20260903231103 90 276 7.0 13.0 0.00 0.00 0.00 30 1011.5
20260903231003 90 275 7.0 13.0 0.00 0.00 0.00 30 1011.5
20260903230903 90 277 7.0 13.0 0.00 0.00 0.00 30 1011.5
20260903230805 90 276 7.0 18.0 0.00 0.00 0.00 30 1011.5
20260903230703 90 276 7.0 18.0 0.00 0.00 0.00 30 1011.5
20260903230603 90 275 7.0 18.0 0.00 0.00 0.00 30 1011.5
20260903230503 90 273 7.0 18.0 0.00 0.00 0.00 30 1011.5
20260903230424 90 275 7.0 18.0 0.00 0.00 0.00 30 1011.5
20260903230303 90 280 8.0 19.0 0.00 0.00 0.00 30 1011.5
20260903230203 90 279 7.0 19.0 0.00 0.00 0.00 30 1011.5
20260903230103 90 280 7.0 19.0 0.00 0.00 0.00 30 1011.5
20260903230003 90 279 8.0 19.0 0.00 0.00 0.00 30 1011.6
20260903225903 90 280 8.0 19.0 0.00 0.00 0.00 30 1011.6
20260903225803 90 281 8.0 19.0 0.00 0.00 0.00 29 1011.6
20260903225703 90 279 8.0 19.0 0.00 0.00 0.00 30 1011.6
20260903225603 90 280 8.0 19.0 0.00 0.00 0.00 29 1011.6
20260903225503 90 284 8.0 19.0 0.00 0.00 0.00 29 1011.6
20260903225403 90 285 8.0 16.0 0.00 0.00 0.00 30 1011.5
20260903225306 91 283 8.0 16.0 0.00 0.00 0.00 29 1011.4
20260903225203 91 284 8.0 16.0 0.00 0.00 0.00 30 1011.4
20260903225103 91 285 8.0 16.0 0.00 0.00 0.00 30 1011.4
20260903225003 91 285 8.0 16.0 0.00 0.00 0.00 30 1011.4
20260903224903 91 288 8.0 17.0 0.00 0.00 0.00 30 1011.4
20260903224803 91 288 8.0 17.0 0.00 0.00 0.00 30 1011.4
20260903224703 91 288 8.0 17.0 0.00 0.00 0.00 30 1011.4
20260903224603 91 289 8.0 17.0 0.00 0.00 0.00 30 1011.4
20260903224524 91 286 8.0 17.0 0.00 0.00 0.00 30 1011.3
20260903224403 91 285 8.0 17.0 0.00 0.00 0.00 31 1011.4
20260903224303 91 284 8.0 17.0 0.00 0.00 0.00 31 1011.3
20260903224203 91 283 7.0 17.0 0.00 0.00 0.00 31 1011.4
20260903224103 91 279 7.0 17.0 0.00 0.00 0.00 31 1011.3
20260903224003 91 277 7.0 17.0 0.00 0.00 0.00 31 1011.4
20260903223903 92 272 7.0 17.0 0.00 0.00 0.00 31 1011.4
20260903223803 92 272 7.0 17.0 0.00 0.00 0.00 31 1011.2
20260903223703 92 271 7.0 17.0 0.00 0.00 0.00 31 1011.3
20260903223603 92 270 7.0 17.0 0.00 0.00 0.00 30 1011.3
20260903223503 92 273 8.0 17.0 0.00 0.00 0.00 30 1011.3
20260903223403 92 275 8.0 17.0 0.00 0.00 0.00 30 1011.3
20260903223303 91 276 8.0 17.0 0.00 0.00 0.00 30 1011.3
20260903223203 91 276 8.0 21.0 0.00 0.00 0.00 29 1011.3
20260903223103 91 279 8.0 21.0 0.00 0.00 0.00 29 1011.3
20260903223003 91 279 8.0 21.0 0.00 0.00 0.00 29 1011.3
20260903222903 91 279 8.0 21.0 0.00 0.00 0.00 29 1011.4
20260903222803 92 282 8.0 21.0 0.00 0.00 0.00 28 1011.3
20260903222704 92 283 8.0 21.0 0.00 0.00 0.00 28 1011.3
20260903222603 92 283 8.0 21.0 0.00 0.00 0.00 28 1011.2
20260903222503 92 280 8.0 21.0 0.00 0.00 0.00 27 1011.3
20260903222403 92 278 8.0 21.0 0.00 0.00 0.00 27 1011.2
20260903222305 92 277 8.0 21.0 0.00 0.00 0.00 27 1011.2
20260903222203 92 276 8.0 16.0 0.00 0.00 0.00 27 1011.2
20260903222124 92 275 8.0 16.0 0.00 0.00 0.00 27 1011.2
20260903222024 92 277 8.0 16.0 0.00 0.00 0.00 28 1011.2
20260903221903 92 280 8.0 16.0 0.00 0.00 0.00 29 1011.1
20260903221803 92 278 7.0 16.0 0.00 0.00 0.00 30 1011.1
20260903221703 92 277 7.0 15.0 0.00 0.00 0.00 30 1011.1
20260903221603 92 274 7.0 15.0 0.00 0.00 0.00 31 1011.1
20260903221503 93 276 7.0 15.0 0.00 0.00 0.00 31 1011.0
20260903221424 93 274 6.0 14.0 0.00 0.00 0.00 31 1011.0
20260903221303 93 274 6.0 13.0 0.00 0.00 0.00 32 1011.0
20260903221224 93 274 6.0 13.0 0.00 0.00 0.00 32 1010.9
20260903221103 93 272 6.0 13.0 0.00 0.00 0.00 32 1011.0
20260903221003 92 272 6.0 13.0 0.00 0.00 0.00 33 1011.0
20260903220903 92 270 6.0 13.0 0.00 0.00 0.00 33 1010.9
20260903220803 92 270 7.0 13.0 0.00 0.00 0.00 33 1010.9
20260903220703 92 270 7.0 13.0 0.00 0.00 0.00 33 1011.0
20260903220603 92 273 7.0 17.0 0.00 0.00 0.00 33 1011.0
20260903220503 92 273 7.0 17.0 0.00 0.00 0.00 33 1011.0
20260903220424 92 273 7.0 17.0 0.00 0.00 0.00 33 1011.0
20260903220324 92 275 7.0 17.0 0.00 0.00 0.00 33 1011.0
20260903220203 92 274 7.0 17.0 0.00 0.00 0.00 34 1011.0
20260903220124 92 274 7.0 17.0 0.00 0.00 0.00 34 1011.0
20260903220024 92 275 7.0 17.0 0.00 0.00 0.00 34 1011.0
20260903215903 92 277 7.0 17.0 0.00 0.00 0.00 35 1011.1
20260903215803 93 279 7.0 17.0 0.00 0.00 0.00 35 1011.0
20260903215703 93 278 7.0 17.0 0.00 0.00 0.00 35 1011.1
20260903215624 93 278 7.0 16.0 0.00 0.00 0.00 35 1011.0
20260903215503 93 273 7.0 15.0 0.00 0.00 0.00 35 1011.1
20260903215403 93 271 7.0 15.0 0.00 0.00 0.00 36 1011.1
20260903215306 93 272 7.0 15.0 0.00 0.00 0.00 36 1011.0
20260903215203 93 275 7.0 15.0 0.00 0.00 0.00 36 1011.0
20260903215103 93 275 7.0 15.0 0.00 0.00 0.00 36 1011.0
20260903215003 93 273 6.0 15.0 0.00 0.00 0.00 36 1011.0
20260903214903 93 274 7.0 15.0 0.00 0.00 0.00 37 1011.0
20260903214803 93 273 7.0 15.0 0.00 0.00 0.00 37 1011.0
20260903214724 93 275 7.0 15.0 0.00 0.00 0.00 37 1011.0
20260903214605 94 274 7.0 15.0 0.00 0.00 0.00 37 1011.0
20260903214503 94 274 7.0 14.0 0.00 0.00 0.00 37 1011.0
20260903214403 94 276 7.0 14.0 0.00 0.00 0.00 37 1011.0
20260903214303 94 270 7.0 14.0 0.00 0.00 0.00 37 1011.0
20260903214203 94 264 7.0 15.0 0.00 0.00 0.00 37 1011.0
20260903214103 94 265 8.0 15.0 0.00 0.00 0.00 37 1011.0
20260903214003 94 264 8.0 15.0 0.00 0.00 0.00 37 1011.0
20260903213903 94 260 7.0 15.0 0.00 0.00 0.00 38 1011.0
20260903213824 94 260 7.0 15.0 0.00 0.00 0.00 38 1011.0
20260903213703 94 261 7.0 15.0 0.00 0.00 0.00 38 1011.0
20260903213603 94 261 7.0 15.0 0.00 0.00 0.00 38 1011.0
20260903213503 94 263 7.0 15.0 0.00 0.00 0.00 38 1011.1
20260903213403 94 265 7.0 15.0 0.00 0.00 0.00 38 1011.0
20260903213303 94 268 7.0 15.0 0.00 0.00 0.00 38 1011.0
20260903213203 94 269 7.0 15.0 0.00 0.00 0.00 38 1011.1
20260903213103 94 269 6.0 15.0 0.00 0.00 0.00 38 1011.1
20260903213003 94 270 7.0 14.0 0.00 0.00 0.00 38 1011.1
20260903212903 94 267 7.0 14.0 0.00 0.00 0.00 38 1011.1
20260903212803 94 264 6.0 14.0 0.00 0.00 0.00 38 1011.1
20260903212703 94 260 6.0 14.0 0.00 0.00 0.00 38 1011.1
20260903212603 94 259 6.0 14.0 0.00 0.00 0.00 38 1011.1
20260903212524 94 260 6.0 14.0 0.00 0.00 0.00 38 1011.2
20260903212403 94 256 6.0 14.0 0.00 0.00 0.00 38 1011.2
20260903212306 94 256 6.0 14.0 0.00 0.00 0.00 38 1011.1
20260903212203 94 259 6.0 14.0 0.00 0.00 0.00 38 1011.2
20260903212103 94 261 6.0 14.0 0.00 0.00 0.00 38 1011.3
20260903212003 95 261 5.0 14.0 0.00 0.00 0.00 38 1011.3
20260903211903 94 265 6.0 14.0 0.00 0.00 0.00 38 1011.3
20260903211803 94 267 6.0 14.0 0.00 0.00 0.00 38 1011.2
20260903211724 94 267 6.0 14.0 0.00 0.00 0.00 38 1011.2
20260903211603 94 268 7.0 14.0 0.00 0.00 0.00 38 1011.2
20260903211503 94 267 6.0 14.0 0.00 0.00 0.00 38 1011.2
20260903211404 94 267 7.0 14.0 0.00 0.00 0.00 38 1011.2
20260903211303 94 266 7.0 14.0 0.00 0.00 0.00 38 1011.2
20260903211203 94 264 7.0 14.0 0.00 0.00 0.00 38 1011.3
20260903211103 94 262 6.0 14.0 0.00 0.00 0.00 38 1011.3
20260903211003 94 261 7.0 14.0 0.00 0.00 0.00 38 1011.2
20260903210903 95 260 6.0 14.0 0.00 0.00 0.00 38 1011.3
20260903210803 95 258 6.0 15.0 0.00 0.00 0.00 38 1011.3
20260903210703 95 256 7.0 15.0 0.00 0.00 0.00 38 1011.3
20260903210603 95 256 6.0 15.0 0.00 0.00 0.00 38 1011.3
20260903210503 95 257 6.0 15.0 0.00 0.00 0.00 38 1011.3
20260903210403 95 257 6.0 15.0 0.00 0.00 0.00 38 1011.3
20260903210303 95 257 6.0 15.0 0.00 0.00 0.00 38 1011.3
20260903210203 95 256 6.0 15.0 0.00 0.00 0.00 38 1011.3
20260903210103 95 259 6.0 15.0 0.00 0.00 0.00 38 1011.4
20260903210003 95 259 6.0 15.0 0.00 0.00 0.00 38 1011.3
20260903205924 95 261 6.0 15.0 0.00 0.00 0.00 38 1011.3
20260903205803 96 262 5.0 13.0 0.00 0.00 0.00 37 1011.3
20260903205703 96 263 5.0 13.0 0.00 0.00 0.00 37 1011.4
20260903205603 96 265 5.0 13.0 0.00 0.00 0.00 38 1011.3
20260903205503 96 265 5.0 13.0 0.00 0.00 0.00 37 1011.3
20260903205403 95 268 5.0 13.0 0.00 0.00 0.00 37 1011.3
20260903205324 95 270 6.0 13.0 0.00 0.00 0.00 38 1011.4
20260903205224 95 271 5.0 13.0 0.00 0.00 0.00 37 1011.4
20260903205103 95 269 5.0 12.0 0.00 0.00 0.00 38 1011.3
20260903205003 95 269 5.0 12.0 0.00 0.00 0.00 38 1011.3
20260903204903 95 268 5.0 12.0 0.00 0.00 0.00 38 1011.4
20260903204803 95 268 5.0 12.0 0.00 0.00 0.00 37 1011.4
20260903204703 95 267 5.0 12.0 0.00 0.00 0.00 37 1011.4
20260903204603 95 267 5.0 12.0 0.00 0.00 0.00 37 1011.5
20260903204503 95 265 5.0 12.0 0.00 0.00 0.00 37 1011.5
20260903204403 95 260 5.0 11.0 0.00 0.00 0.00 37 1011.5
20260903204303 96 255 5.0 11.0 0.00 0.00 0.00 37 1011.6
20260903204203 95 251 5.0 11.0 0.00 0.00 0.00 37 1011.5
20260903204124 96 250 5.0 11.0 0.00 0.00 0.00 37 1011.5
20260903204003 96 251 5.0 12.0 0.00 0.00 0.00 37 1011.6
20260903203903 96 251 5.0 12.0 0.00 0.00 0.00 37 1011.6
20260903203803 96 251 5.0 12.0 0.00 0.00 0.00 37 1011.6
20260903203703 96 252 5.0 12.0 0.00 0.00 0.00 37 1011.6
20260903203603 96 252 5.0 12.0 0.00 0.00 0.00 37 1011.7
20260903203503 96 251 5.0 12.0 0.00 0.00 0.00 37 1011.7
20260903203403 96 251 5.0 12.0 0.00 0.00 0.00 37 1011.7
20260903203324 96 251 5.0 12.0 0.00 0.00 0.00 37 1011.7
20260903203224 96 251 5.0 12.0 0.00 0.00 0.00 37 1011.7
20260903203103 96 257 5.0 12.0 0.00 0.00 0.00 37 1011.7
20260903203024 96 259 5.0 11.0 0.00 0.00 0.00 37 1011.7
20260903202903 96 257 5.0 11.0 0.00 0.00 0.00 37 1011.7
20260903202803 96 256 6.0 13.0 0.00 0.00 0.00 37 1011.8
20260903202703 96 255 6.0 13.0 0.00 0.00 0.00 37 1011.8
20260903202603 96 255 5.0 13.0 0.00 0.00 0.00 36 1011.8
20260903202524 96 257 5.0 13.0 0.00 0.00 0.00 37 1011.8
20260903202403 96 259 5.0 13.0 0.00 0.00 0.00 36 1011.8
20260903202306 96 261 5.0 13.0 0.00 0.00 0.00 36 1011.9
20260903202203 96 258 6.0 13.0 0.00 0.00 0.00 36 1011.8
20260903202124 96 258 6.0 13.0 0.00 0.00 0.00 36 1011.9
20260903202003 96 255 5.0 13.0 0.00 0.00 0.00 36 1011.8
20260903201903 96 256 5.0 13.0 0.00 0.00 0.00 36 1011.8
20260903201803 96 256 5.0 10.0 0.00 0.00 0.00 36 1011.9
20260903201703 96 257 5.0 10.0 0.00 0.00 0.00 36 1011.9
20260903201603 96 258 5.0 10.0 0.00 0.00 0.00 37 1011.9
20260903201503 95 260 5.0 10.0 0.00 0.00 0.00 37 1011.9
20260903201403 95 262 5.0 10.0 0.00 0.00 0.00 37 1011.9
20260903201303 95 263 5.0 10.0 0.00 0.00 0.00 37 1011.9
20260903201203 95 268 5.0 10.0 0.00 0.00 0.00 37 1012.0
20260903201103 95 271 4.0 10.0 0.00 0.00 0.00 37 1012.0
20260903201003 95 274 4.0 10.0 0.00 0.00 0.00 37 1012.0
20260903200903 95 276 4.0 10.0 0.00 0.00 0.00 37 1012.0
20260903200803 95 279 4.0 10.0 0.00 0.00 0.00 37 1012.0
20260903200724 95 280 4.0 10.0 0.00 0.00 0.00 37 1012.0
20260903200603 95 283 4.0 10.0 0.00 0.00 0.00 37 1012.0
20260903200503 95 281 4.0 10.0 0.00 0.00 0.00 37 1011.9
20260903200403 95 277 4.0 10.0 0.00 0.00 0.00 37 1011.9
20260903200303 95 276 4.0 10.0 0.00 0.00 0.00 37 1011.9
20260903200203 95 274 4.0 10.0 0.00 0.00 0.00 37 1011.9
20260903200103 95 275 5.0 10.0 0.00 0.00 0.00 37 1011.9
20260903200003 95 275 5.0 10.0 0.00 0.00 0.00 37 1011.9
20260903195903 95 274 5.0 10.0 0.00 0.00 0.00 37 1011.9
20260903195803 95 271 5.0 10.0 0.00 0.00 0.00 37 1012.0
20260903195703 95 268 4.0 10.0 0.00 0.00 0.00 37 1012.0
20260903195624 95 266 4.0 10.0 0.00 0.00 0.00 36 1011.9
20260903195503 96 264 4.0 9.0 0.00 0.00 0.00 36 1011.9
20260903195403 96 268 4.0 9.0 0.00 0.00 0.00 36 1011.9
20260903195306 96 270 3.0 9.0 0.00 0.00 0.00 36 1011.9
20260903195203 96 269 3.0 8.0 0.00 0.00 0.00 36 1011.9
20260903195103 96 264 3.0 8.0 0.00 0.00 0.00 36 1011.9
20260903195003 96 261 3.0 8.0 0.00 0.00 0.00 36 1011.9
20260903194903 96 260 3.0 8.0 0.00 0.00 0.00 36 1011.9
20260903194803 96 261 3.0 8.0 0.00 0.00 0.00 36 1012.0
20260903194703 96 262 3.0 8.0 0.00 0.00 0.00 36 1012.0
20260903194624 96 262 3.0 8.0 0.00 0.00 0.00 36 1011.9
20260903194503 95 258 3.0 8.0 0.00 0.00 0.00 36 1012.0
20260903194424 95 256 3.0 8.0 0.00 0.00 0.00 36 1012.0
20260903194324 95 251 3.0 8.0 0.00 0.00 0.00 36 1012.0
20260903194224 95 250 3.0 8.0 0.00 0.00 0.00 36 1011.9
20260903194103 95 248 3.0 6.0 0.00 0.00 0.00 36 1012.0
20260903194024 95 248 3.0 6.0 0.00 0.00 0.00 36 1012.0
20260903193924 95 247 3.0 6.0 0.00 0.00 0.00 36 1012.0
20260903193803 95 247 3.0 6.0 0.00 0.00 0.00 36 1012.0
20260903193724 95 247 3.0 6.0 0.00 0.00 0.00 36 1012.0
20260903193603 95 252 3.0 6.0 0.00 0.00 0.00 36 1012.0
20260903193503 95 255 4.0 9.0 0.00 0.00 0.00 36 1012.1
20260903193403 95 257 4.0 9.0 0.00 0.00 0.00 36 1012.0
20260903193303 95 259 4.0 11.0 0.00 0.00 0.00 36 1012.0
20260903193203 96 262 4.0 11.0 0.00 0.00 0.00 36 1012.1
20260903193103 96 265 4.0 11.0 0.00 0.00 0.00 36 1012.1
20260903193024 96 268 4.0 11.0 0.00 0.00 0.00 36 1012.1
20260903192903 96 272 4.0 11.0 0.00 0.00 0.00 36 1012.1
20260903192803 96 283 5.0 11.0 0.00 0.00 0.00 36 1012.1
20260903192724 96 295 5.0 11.0 0.00 0.00 0.00 36 1012.1
20260903192624 96 316 4.0 11.0 0.00 0.00 0.00 36 1012.1
20260903192503 96 344 4.0 11.0 0.00 0.00 0.00 36 1012.1
20260903192403 97 347 4.0 11.0 0.00 0.00 0.00 36 1012.2
20260903192306 97 3 3.0 11.0 0.00 0.00 0.00 35 1012.1
20260903192203 97 5 3.0 8.0 0.00 0.00 0.00 35 1012.2
20260903192103 97 2 3.0 12.0 0.00 0.00 0.00 35 1012.2
20260903192003 97 351 4.0 12.0 0.00 0.00 0.00 35 1012.2
20260903191903 98 337 4.0 12.0 0.00 0.00 0.00 34 1012.2
20260903191803 98 317 3.0 12.0 0.00 0.00 0.00 34 1012.3
20260903191703 98 298 3.0 12.0 0.00 0.00 0.00 34 1012.3
20260903191624 98 284 3.0 12.0 0.00 0.00 0.00 34 1012.3
20260903191503 97 270 3.0 12.0 0.00 0.00 0.00 34 1012.3
20260903191403 97 262 3.0 12.0 0.00 0.00 0.00 34 1012.3
20260903191303 97 264 3.0 12.0 0.00 0.00 0.00 34 1012.3
20260903191203 97 262 3.0 12.0 0.00 0.00 0.00 34 1012.4
20260903191124 97 247 3.0 6.0 0.00 0.00 0.00 34 1012.3
20260903191003 96 285 3.0 6.0 0.00 0.00 0.00 35 1012.4
20260903190903 96 332 3.0 6.0 0.00 0.00 0.00 35 1012.4
20260903190803 96 1 3.0 6.0 0.00 0.00 0.00 35 1012.4
20260903190703 96 356 3.0 8.0 0.00 0.00 0.00 34 1012.4
20260903190603 97 353 3.0 8.0 0.00 0.00 0.00 34 1012.5
20260903190524 97 356 3.0 8.0 0.00 0.00 0.00 34 1012.5
20260903190403 97 359 3.0 8.0 0.00 0.00 0.00 34 1012.5
20260903190324 97 349 3.0 8.0 0.00 0.00 0.00 34 1012.5
20260903190203 97 336 3.0 8.0 0.00 0.00 0.00 34 1012.6
20260903190003 96 311 3.0 8.0 0.00 0.00 0.00 34 1012.6
20260903185924 96 304 3.0 8.0 0.00 0.00 0.00 34 1012.7
20260903185803 96 293 3.0 8.0 0.00 0.00 0.00 33 1012.7
20260903185703 96 284 3.0 8.0 0.00 0.00 0.00 34 1012.7
20260903185603 96 278 3.0 8.0 0.00 0.00 0.00 34 1012.6
20260903185503 96 278 3.0 8.0 0.00 0.00 0.00 34 1012.7
20260903185403 96 282 3.0 8.0 0.00 0.00 0.00 34 1012.8
20260903185306 96 284 3.0 10.0 0.00 0.00 0.00 34 1012.7
20260903185203 95 287 4.0 10.0 0.00 0.00 0.00 34 1012.7
20260903185103 95 287 4.0 10.0 0.00 0.00 0.00 34 1012.8
20260903185003 95 288 3.0 10.0 0.00 0.00 0.00 34 1012.8
20260903184903 95 289 3.0 10.0 0.00 0.00 0.00 34 1012.8
20260903184803 95 287 4.0 10.0 0.00 0.00 0.00 34 1012.8
20260903184703 95 288 3.0 10.0 0.00 0.00 0.00 34 1012.9
20260903184603 95 291 3.0 10.0 0.00 0.00 0.00 34 1012.9
20260903184503 95 288 3.0 10.0 0.00 0.00 0.00 33 1012.9
20260903184403 95 280 3.0 10.0 0.00 0.00 0.00 33 1012.9
20260903184303 95 277 3.0 10.0 0.00 0.00 0.00 33 1012.9
20260903184203 95 279 3.0 11.0 0.00 0.00 0.00 33 1012.9
20260903184103 95 278 4.0 12.0 0.00 0.00 0.00 33 1013.0
20260903184024 95 281 4.0 12.0 0.00 0.00 0.00 33 1012.9
20260903183903 95 287 4.0 12.0 0.00 0.00 0.00 33 1013.0
20260903183824 95 288 4.0 12.0 0.00 0.00 0.00 33 1013.0
20260903183703 95 293 4.0 12.0 0.00 0.00 0.00 33 1013.1
20260903183603 95 296 4.0 12.0 0.00 0.00 0.00 33 1013.1
20260903183503 95 302 4.0 12.0 0.00 0.00 0.00 33 1013.1
20260903183403 95 310 4.0 12.0 0.00 0.00 0.00 33 1013.1
20260903183303 95 316 3.0 12.0 0.00 0.00 0.00 33 1013.1
20260903183203 95 315 3.0 12.0 0.00 0.00 0.00 33 1013.1
20260903183103 95 327 3.0 7.0 0.00 0.00 0.00 33 1013.1
20260903183003 95 325 3.0 7.0 0.00 0.00 0.00 32 1013.2
20260903182903 95 321 3.0 7.0 0.00 0.00 0.00 33 1013.1
20260903182824 95 325 3.0 7.0 0.00 0.00 0.00 32 1013.2
20260903182704 95 343 3.0 7.0 0.00 0.00 0.00 32 1013.2
20260903182603 95 352 3.0 7.0 0.00 0.00 0.00 32 1013.3
20260903182503 95 3 4.0 7.0 0.00 0.00 0.00 33 1013.3
20260903182403 94 10 4.0 7.0 0.00 0.00 0.00 32 1013.3
20260903182306 94 9 3.0 7.0 0.00 0.00 0.00 32 1013.3
20260903182203 94 18 3.0 7.0 0.00 0.00 0.00 32 1013.3
20260903182103 94 20 3.0 7.0 0.00 0.00 0.00 32 1013.3
20260903182003 94 16 3.0 7.0 0.00 0.00 0.00 32 1013.4
20260903181903 94 21 3.0 7.0 0.00 0.00 0.00 32 1013.3
20260903181803 94 2 3.0 7.0 0.00 0.00 0.00 32 1013.3
20260903181703 94 318 2.0 7.0 0.00 0.00 0.00 32 1013.4
20260903181603 94 311 2.0 6.0 0.00 0.00 0.00 32 1013.4
20260903181524 94 316 2.0 6.0 0.00 0.00 0.00 32 1013.4
20260903181403 94 296 2.0 9.0 0.00 0.00 0.00 32 1013.4
20260903181303 94 302 2.0 9.0 0.00 0.00 0.00 32 1013.4
20260903181203 94 302 3.0 9.0 0.00 0.00 0.00 32 1013.5
20260903181103 94 312 3.0 9.0 0.00 0.00 0.00 32 1013.5
20260903181003 94 320 3.0 9.0 0.00 0.00 0.00 32 1013.5
20260903180903 94 324 3.0 9.0 0.00 0.00 0.00 32 1013.5
20260903180803 94 326 3.0 9.0 0.00 0.00 0.00 31 1013.5
20260903180724 94 326 3.0 9.0 0.00 0.00 0.00 31 1013.5
20260903180603 94 318 3.0 9.0 0.00 0.00 0.00 31 1013.5
20260903180504 94 315 3.0 9.0 0.00 0.00 0.00 31 1013.5
20260903180403 94 314 4.0 7.0 0.00 0.00 0.00 31 1013.6
20260903180303 94 326 4.0 7.0 0.00 0.00 0.00 31 1013.6
20260903180203 94 340 4.0 7.0 0.00 0.00 0.00 31 1013.6
20260903180003 94 352 4.0 7.0 0.00 0.00 0.00 31 1013.6
20260903175903 94 358 4.0 7.0 0.00 0.00 0.00 31 1013.6
20260903175803 94 8 4.0 7.0 0.00 0.00 0.00 31 1013.7
20260903175703 94 15 4.0 7.0 0.00 0.00 0.00 31 1013.7
20260903175603 94 22 4.0 7.0 0.00 0.00 0.00 31 1013.7
20260903175524 94 23 4.0 7.0 0.00 0.00 0.00 31 1013.7
20260903175403 94 32 4.0 7.0 0.00 0.00 0.00 31 1013.7
20260903175306 94 33 3.0 7.0 0.00 0.00 0.00 30 1013.8
20260903175203 94 33 3.0 7.0 0.00 0.00 0.00 30 1013.8
20260903175103 94 27 3.0 7.0 0.00 0.00 0.00 30 1013.8
20260903175003 94 27 3.0 7.0 0.00 0.00 0.00 30 1013.9
20260903174903 94 28 3.0 7.0 0.00 0.00 0.00 30 1013.9
20260903174803 94 29 3.0 7.0 0.00 0.00 0.00 29 1013.9
20260903174703 95 31 3.0 6.0 0.00 0.00 0.00 29 1013.9
20260903174603 94 33 3.0 7.0 0.00 0.00 0.00 29 1014.0
20260903174524 94 37 4.0 9.0 0.00 0.00 0.00 29 1014.0
20260903174424 94 35 4.0 9.0 0.00 0.00 0.00 29 1014.0
20260903174324 94 28 4.0 9.0 0.00 0.00 0.00 29 1014.0
20260903174203 94 21 4.0 9.0 0.00 0.00 0.00 29 1014.0
20260903174103 94 21 4.0 9.0 0.00 0.00 0.00 29 1014.0
20260903174003 94 8 4.0 9.0 0.00 0.00 0.00 28 1014.0
20260903173903 94 4 4.0 9.0 0.00 0.00 0.00 29 1014.0
20260903173803 94 358 4.0 9.0 0.00 0.00 0.00 28 1014.0
20260903173724 94 350 5.0 9.0 0.00 0.00 0.00 28 1014.0
20260903173624 94 340 5.0 10.0 0.00 0.00 0.00 28 1014.0
20260903173503 94 327 4.0 10.0 0.00 0.00 0.00 27 1014.0
20260903173403 94 328 4.0 10.0 0.00 0.00 0.00 27 1014.1
20260903173303 94 337 4.0 10.0 0.00 0.00 0.00 27 1014.0
20260903173203 93 345 4.0 10.0 0.00 0.00 0.00 27 1014.0
20260903173124 93 350 4.0 10.0 0.00 0.00 0.00 27 1014.0
20260903173003 93 6 4.0 10.0 0.00 0.00 0.00 27 1014.1
20260903172903 93 14 4.0 10.0 0.00 0.00 0.00 27 1014.1
20260903172824 93 20 5.0 10.0 0.00 0.00 0.00 27 1014.0
20260903172703 93 29 5.0 11.0 0.00 0.00 0.00 27 1014.1
20260903172603 93 38 4.0 11.0 0.00 0.00 0.00 26 1014.1
20260903172503 93 41 5.0 11.0 0.00 0.00 0.00 26 1014.0
20260903172424 93 42 5.0 11.0 0.00 0.00 0.00 26 1014.0
20260903172306 93 45 5.0 11.0 0.00 0.00 0.00 26 1014.0
20260903172203 92 43 5.0 11.0 0.00 0.00 0.00 26 1014.0
20260903172124 92 44 5.0 11.0 0.00 0.00 0.00 26 1014.0
20260903172003 92 42 5.0 11.0 0.00 0.00 0.00 25 1014.0
20260903171924 92 41 5.0 11.0 0.00 0.00 0.00 25 1014.0
20260903171803 92 38 5.0 11.0 0.00 0.00 0.00 25 1014.0
20260903171703 92 37 4.0 11.0 0.00 0.00 0.00 25 1014.0
20260903171603 92 36 4.0 11.0 0.00 0.00 0.00 25 1014.0
20260903171524 92 36 4.0 11.0 0.00 0.00 0.00 24 1014.0
20260903171403 92 36 4.0 11.0 0.00 0.00 0.00 24 1014.0
20260903171303 92 41 4.0 11.0 0.00 0.00 0.00 24 1014.0
20260903171203 92 46 4.0 11.0 0.00 0.00 0.00 24 1014.0
20260903171103 92 48 4.0 10.0 0.00 0.00 0.00 23 1014.0
20260903171024 92 48 5.0 12.0 0.00 0.00 0.00 23 1014.0
20260903170903 91 51 5.0 13.0 0.00 0.00 0.00 23 1014.0
20260903170803 91 47 5.0 13.0 0.00 0.00 0.00 23 1014.0
20260903170703 91 50 5.0 13.0 0.00 0.00 0.00 23 1014.0
20260903170603 91 49 6.0 13.0 0.00 0.00 0.00 23 1014.0
20260903170503 91 48 6.0 13.0 0.00 0.00 0.00 23 1014.0
20260903170424 91 47 6.0 13.0 0.00 0.00 0.00 23 1014.0
20260903170303 91 44 6.0 13.0 0.00 0.00 0.00 23 1014.0
20260903170203 91 42 6.0 13.0 0.00 0.00 0.00 23 1014.0
20260903170103 92 39 6.0 13.0 0.00 0.00 0.00 23 1014.0
20260903170003 92 39 6.0 12.0 0.00 0.00 0.00 22 1014.0
20260903165903 91 37 6.0 12.0 0.00 0.00 0.00 22 1014.0
20260903165803 91 41 6.0 12.0 0.00 0.00 0.00 21 1014.0
20260903165703 91 38 6.0 12.0 0.00 0.00 0.00 21 1014.0
20260903165603 91 38 7.0 12.0 0.00 0.00 0.00 21 1014.0
20260903165503 91 38 7.0 14.0 0.00 0.00 0.00 21 1014.0
20260903165403 91 36 7.0 14.0 0.00 0.00 0.00 20 1014.0
20260903165305 91 35 8.0 14.0 0.00 0.00 0.00 21 1014.0
20260903165203 91 34 8.0 14.0 0.00 0.00 0.00 21 1014.0
20260903165103 91 33 8.0 14.0 0.00 0.00 0.00 21 1013.9
20260903165003 91 32 8.0 14.0 0.00 0.00 0.00 21 1014.0
20260903164924 91 30 8.0 14.0 0.00 0.00 0.00 21 1014.0
20260903164803 91 30 7.0 14.0 0.00 0.00 0.00 20 1013.9
20260903164703 91 30 7.0 14.0 0.00 0.00 0.00 21 1013.9
20260903164624 91 27 7.0 14.0 0.00 0.00 0.00 21 1014.0
20260903164503 91 28 7.0 14.0 0.00 0.00 0.00 20 1014.0
20260903164403 91 31 7.0 14.0 0.00 0.00 0.00 20 1013.9
20260903164303 91 33 6.0 13.0 0.00 0.00 0.00 19 1013.9
20260903164203 91 33 6.0 12.0 0.00 0.00 0.00 19 1013.9
20260903164103 91 35 6.0 12.0 0.00 0.00 0.00 18 1013.9
20260903164003 91 35 6.0 12.0 0.00 0.00 0.00 18 1014.0
20260903163903 91 37 6.0 12.0 0.00 0.00 0.00 17 1014.0
20260903163803 91 34 6.0 12.0 0.00 0.00 0.00 17 1014.0
20260903163703 91 36 6.0 12.0 0.00 0.00 0.00 16 1014.0
20260903163603 91 40 6.0 12.0 0.00 0.00 0.00 16 1014.0
20260903163503 91 40 6.0 15.0 0.00 0.00 0.00 15 1014.1
20260903163403 91 40 6.0 15.0 0.00 0.00 0.00 15 1014.1
20260903163303 91 40 6.0 15.0 0.00 0.00 0.00 14 1014.1
20260903163203 91 41 6.0 15.0 0.00 0.00 0.00 15 1014.1
20260903163124 91 39 6.0 15.0 0.00 0.00 0.00 14 1014.1
20260903163003 90 39 6.0 15.0 0.00 0.00 0.00 14 1014.1
20260903162905 90 43 7.0 15.0 0.00 0.00 0.00 14 1014.1
20260903162803 90 43 7.0 15.0 0.00 0.00 0.00 14 1014.1
20260903162703 90 43 8.0 15.0 0.00 0.00 0.00 14 1014.1
20260903162603 90 41 8.0 15.0 0.00 0.00 0.00 13 1014.1
20260903162503 90 41 8.0 14.0 0.00 0.00 0.00 12 1014.1
20260903162424 90 40 8.0 14.0 0.00 0.00 0.00 12 1014.1
20260903162306 90 37 8.0 14.0 0.00 0.00 0.00 12 1014.1
20260903162203 90 37 8.0 14.0 0.00 0.00 0.00 12 1014.0
20260903162103 90 37 8.0 14.0 0.00 0.00 0.00 13 1014.0
20260903162003 90 37 8.0 14.0 0.00 0.00 0.00 13 1014.0
20260903161903 90 36 8.0 14.0 0.00 0.00 0.00 13 1014.0
20260903161824 90 37 8.0 14.0 0.00 0.00 0.00 13 1014.1
20260903161703 90 37 8.0 14.0 0.00 0.00 0.00 13 1014.0
20260903161603 90 37 7.0 14.0 0.00 0.00 0.00 12 1014.0
20260903161503 90 35 7.0 14.0 0.00 0.00 0.00 10 1014.1
20260903161403 90 37 7.0 14.0 0.00 0.00 0.00 10 1014.0
20260903161324 90 38 7.0 14.0 0.00 0.00 0.00 10 1014.0
20260903161203 90 40 8.0 14.0 0.00 0.00 0.00 10 1014.0
20260903161103 90 41 7.0 14.0 0.00 0.00 0.00 10 1013.9
20260903161003 90 42 8.0 14.0 0.00 0.00 0.00 9 1014.0
20260903160903 90 45 8.0 14.0 0.00 0.00 0.00 8 1014.0
20260903160803 90 45 7.0 14.0 0.00 0.00 0.00 8 1013.9
20260903160703 90 47 8.0 14.0 0.00 0.00 0.00 8 1013.9
20260903160603 89 47 8.0 14.0 0.00 0.00 0.00 8 1013.9
20260903160524 89 48 8.0 14.0 0.00 0.00 0.00 6 1013.9
20260903160403 89 49 8.0 13.0 0.00 0.00 0.00 7 1013.9
20260903160303 89 47 7.0 18.0 0.00 0.00 0.00 7 1013.9
20260903160203 89 49 7.0 18.0 0.00 0.00 0.00 7 1014.0
20260903160003 89 47 8.0 18.0 0.00 0.00 0.00 8 1013.9
20260903155903 89 45 8.0 18.0 0.00 0.00 0.00 7 1013.9
20260903155803 89 42 9.0 21.0 0.00 0.00 0.00 6 1014.0
20260903155703 89 39 9.0 21.0 0.00 0.00 0.00 5 1014.0
20260903155603 89 39 9.0 21.0 0.00 0.00 0.00 4 1013.9
20260903155503 89 37 9.0 21.0 0.00 0.00 0.00 5 1013.9
20260903155403 89 35 9.0 21.0 0.00 0.00 0.00 5 1013.9
20260903155306 89 35 9.0 21.0 0.00 0.00 0.00 5 1013.9
20260903155203 89 33 9.0 21.0 0.00 0.00 0.00 5 1013.9
20260903155103 89 33 9.0 21.0 0.00 0.00 0.00 6 1013.9
20260903155024 89 31 9.0 21.0 0.00 0.00 0.00 5 1013.9
20260903154903 89 30 9.0 21.0 0.00 0.00 0.00 4 1013.8
20260903154824 89 33 8.0 19.0 0.00 0.00 0.00 2 1013.8
20260903154724 89 34 8.0 18.0 0.00 0.00 0.00 1 1013.8
20260903154603 89 33 8.0 18.0 0.00 0.00 0.00 1 1013.8
20260903154503 89 35 8.0 18.0 0.00 0.00 0.00 1 1013.9
20260903154403 89 37 8.0 18.0 0.00 0.00 0.00 1 1013.9
20260903154303 89 38 8.0 16.0 0.00 0.00 0.00 1 1013.9
20260903154224 88 38 8.0 16.0 0.00 0.00 0.00 1 1013.8
20260903154103 88 38 8.0 16.0 0.00 0.00 0.00 1 1013.8
20260903154003 88 37 8.0 15.0 0.00 0.00 0.00 1 1013.8
20260903153924 88 37 8.0 15.0 0.00 0.00 0.00 1 1013.8
20260903153803 88 37 8.0 15.0 0.00 0.00 0.00 1 1013.9
20260903153703 88 38 8.0 16.0 0.00 0.00 0.00 1 1013.8
20260903153603 88 39 8.0 16.0 0.00 0.00 0.00 1 1013.9
20260903153503 88 38 8.0 16.0 0.00 0.00 0.00 1 1013.9
20260903153403 87 38 9.0 16.0 0.00 0.00 0.00 1 1013.9
20260903153303 87 39 9.0 16.0 0.00 0.00 0.00 1 1013.9
20260903153224 87 39 9.0 16.0 0.00 0.00 0.00 1 1014.0
20260903153103 87 40 9.0 19.0 0.00 0.00 0.00 1 1014.0
20260903153003 87 42 9.0 19.0 0.00 0.00 0.00 1 1014.0
20260903152903 87 41 10.0 19.0 0.00 0.00 0.00 1 1014.0
20260903152803 87 41 9.0 19.0 0.00 0.00 0.00 1 1014.0
20260903152703 87 40 9.0 19.0 0.00 0.00 0.00 1 1014.0
20260903152603 87 40 9.0 19.0 0.00 0.00 0.00 1 1014.0
20260903152503 87 39 8.0 19.0 0.00 0.00 0.00 1 1014.0
20260903152403 87 36 8.0 19.0 0.00 0.00 0.00 1 1013.9
20260903152306 87 37 8.0 19.0 0.00 0.00 0.00 1 1014.0
20260903152203 87 39 8.0 19.0 0.00 0.00 0.00 1 1014.0
20260903152103 87 37 8.0 17.0 0.00 0.00 0.00 1 1014.0
20260903152003 87 37 8.0 17.0 0.00 0.00 0.00 1 1014.0
20260903151903 87 36 8.0 17.0 0.00 0.00 0.00 1 1014.0
20260903151803 87 35 8.0 17.0 0.00 0.00 0.00 1 1013.9
20260903151703 87 35 8.0 17.0 0.00 0.00 0.00 1 1013.9
20260903151603 87 35 8.0 17.0 0.00 0.00 0.00 1 1014.0
20260903151503 87 37 9.0 17.0 0.00 0.00 0.00 1 1014.0
20260903151403 87 37 9.0 17.0 0.00 0.00 0.00 1 1014.0
20260903151303 87 36 9.0 17.0 0.00 0.00 0.00 1 1013.9
20260903151203 87 35 9.0 15.0 0.00 0.00 0.00 1 1014.0
20260903151103 87 37 9.0 18.0 0.00 0.00 0.00 1 1014.0
20260903151003 87 36 9.0 18.0 0.00 0.00 0.00 1 1014.0
20260903150903 87 38 10.0 18.0 0.00 0.00 0.00 1 1014.0
20260903150803 87 40 10.0 18.0 0.00 0.00 0.00 1 1014.0
20260903150703 87 40 10.0 18.0 0.00 0.00 0.00 1 1014.0
20260903150603 87 40 9.0 18.0 0.00 0.00 0.00 1 1014.0
20260903150503 87 40 10.0 18.0 0.00 0.00 0.00 1 1014.1
20260903150403 87 43 9.0 18.0 0.00 0.00 0.00 1 1014.0
20260903150303 87 42 10.0 18.0 0.00 0.00 0.00 1 1014.0
20260903150203 87 42 9.0 18.0 0.00 0.00 0.00 1 1014.0
20260903150024 87 45 9.0 17.0 0.00 0.00 0.00 1 1014.0
20260903145903 87 45 9.0 16.0 0.00 0.00 0.00 1 1014.0
20260903145803 87 45 9.0 16.0 0.00 0.00 0.00 1 1014.0
20260903145703 87 47 9.0 16.0 0.00 0.00 0.00 1 1014.0
20260903145603 87 49 9.0 16.0 0.00 0.00 0.00 1 1014.1
20260903145503 87 49 9.0 16.0 0.00 0.00 0.00 1 1014.0
20260903145424 87 50 10.0 16.0 0.00 0.00 0.00 1 1014.0
20260903145305 87 52 10.0 16.0 0.00 0.00 0.00 1 1014.1
20260903145203 87 50 10.0 17.0 0.00 0.00 0.00 1 1014.0
20260903145103 87 49 10.0 17.0 0.00 0.00 0.00 1 1014.0
20260903145003 87 48 10.0 19.0 0.00 0.00 0.00 1 1014.1
20260903144903 86 48 10.0 19.0 0.00 0.00 0.00 1 1014.1
20260903144805 86 46 10.0 19.0 0.00 0.00 0.00 1 1014.0
20260903144703 86 44 10.0 19.0 0.00 0.00 0.00 1 1014.0
20260903144624 86 43 11.0 19.0 0.00 0.00 0.00 1 1014.0
20260903144503 86 42 10.0 19.0 0.00 0.00 0.00 1 1014.0
20260903144424 86 41 10.0 19.0 0.00 0.00 0.00 1 1014.0
20260903144303 86 41 10.0 19.0 0.00 0.00 0.00 1 1014.0
20260903144203 86 42 10.0 19.0 0.00 0.00 0.00 1 1014.0
20260903144103 86 42 10.0 19.0 0.00 0.00 0.00 1 1014.0
20260903144003 86 43 9.0 18.0 0.00 0.00 0.00 1 1014.0
20260903143903 86 44 10.0 18.0 0.00 0.00 0.00 1 1014.0
20260903143803 86 44 9.0 18.0 0.00 0.00 0.00 1 1014.0
20260903143703 86 44 9.0 18.0 0.00 0.00 0.00 1 1014.0
20260903143603 86 45 9.0 18.0 0.00 0.00 0.00 1 1014.0
20260903143503 86 43 10.0 21.0 0.00 0.00 0.00 1 1013.9
20260903143403 86 40 10.0 21.0 0.00 0.00 0.00 1 1013.9
20260903143303 86 41 10.0 21.0 0.00 0.00 0.00 1 1013.9
20260903143203 85 40 10.0 21.0 0.00 0.00 0.00 1 1013.9
20260903143103 85 40 10.0 21.0 0.00 0.00 0.00 1 1013.9
20260903143003 85 40 9.0 21.0 0.00 0.00 0.00 1 1013.8
20260903142903 85 40 9.0 21.0 0.00 0.00 0.00 1 1013.8
20260903142803 85 41 9.0 21.0 0.00 0.00 0.00 1 1013.9
20260903142703 85 41 8.0 21.0 0.00 0.00 0.00 1 1013.9
20260903142603 85 41 8.0 21.0 0.00 0.00 0.00 1 1013.9
20260903142503 85 43 8.0 18.0 0.00 0.00 0.00 1 1013.8
20260903142403 85 46 8.0 15.0 0.00 0.00 0.00 1 1013.9
20260903142306 85 43 8.0 17.0 0.00 0.00 0.00 1 1013.9
20260903142203 85 44 8.0 17.0 0.00 0.00 0.00 1 1013.9
20260903142103 85 44 8.0 17.0 0.00 0.00 0.00 1 1013.8
20260903142003 85 44 8.0 17.0 0.00 0.00 0.00 1 1013.8
20260903141903 85 44 8.0 17.0 0.00 0.00 0.00 1 1013.8
20260903141803 84 42 9.0 17.0 0.00 0.00 0.00 1 1013.8
20260903141703 84 44 9.0 17.0 0.00 0.00 0.00 1 1013.8
20260903141603 84 45 8.0 17.0 0.00 0.00 0.00 1 1013.8
20260903141503 84 45 9.0 17.0 0.00 0.00 0.00 1 1013.8
20260903141403 84 46 8.0 17.0 0.00 0.00 0.00 1 1013.8
20260903141303 84 47 8.0 17.0 0.00 0.00 0.00 1 1013.8
20260903141203 84 46 8.0 15.0 0.00 0.00 0.00 1 1013.8
20260903141124 84 46 8.0 15.0 0.00 0.00 0.00 1 1013.8
20260903141024 84 45 8.0 15.0 0.00 0.00 0.00 1 1013.8
20260903140903 84 45 8.0 15.0 0.00 0.00 0.00 1 1013.8
20260903140803 84 47 8.0 15.0 0.00 0.00 0.00 1 1013.9
20260903140703 84 46 9.0 15.0 0.00 0.00 0.00 1 1013.8
20260903140603 84 45 9.0 16.0 0.00 0.00 0.00 1 1013.8
20260903140503 84 44 10.0 18.0 0.00 0.00 0.00 1 1013.9
20260903140403 83 46 10.0 19.0 0.00 0.00 0.00 1 1013.9
20260903140303 83 47 10.0 19.0 0.00 0.00 0.00 1 1013.9
20260903140203 83 47 10.0 19.0 0.00 0.00 0.00 1 1013.9
20260903140003 83 46 10.0 19.0 0.00 0.00 0.00 1 1013.9
20260903135903 83 46 10.0 19.0 0.00 0.00 0.00 1 1013.8
20260903135803 83 45 10.0 19.0 0.00 0.00 0.00 1 1013.9
20260903135703 83 45 10.0 19.0 0.00 0.00 0.00 1 1013.8
20260903135603 83 46 11.0 19.0 0.00 0.00 0.00 1 1013.8
20260903135524 83 46 10.0 19.0 0.00 0.00 0.00 1 1013.8
20260903135424 83 45 10.0 19.0 0.00 0.00 0.00 1 1013.8
20260903135306 83 43 10.0 19.0 0.00 0.00 0.00 1 1013.9
20260903135203 83 44 10.0 19.0 0.00 0.00 0.00 1 1013.9
20260903135103 83 44 11.0 19.0 0.00 0.00 0.00 1 1013.9
20260903135003 83 44 10.0 19.0 0.00 0.00 0.00 1 1013.9
20260903134903 83 44 11.0 19.0 0.00 0.00 0.00 1 1013.9
20260903134724 83 43 11.0 19.0 0.00 0.00 0.00 1 1014.0
20260903134624 83 42 10.0 19.0 0.00 0.00 0.00 1 1013.9
20260903134503 83 43 10.0 18.0 0.00 0.00 0.00 1 1013.8
20260903134403 83 42 10.0 18.0 0.00 0.00 0.00 1 1013.9
20260903134303 83 39 10.0 18.0 0.00 0.00 0.00 1 1013.9
20260903134203 83 39 10.0 18.0 0.00 0.00 0.00 1 1013.9
20260903134124 83 39 10.0 18.0 0.00 0.00 0.00 1 1013.8
20260903134003 83 40 9.0 18.0 0.00 0.00 0.00 1 1013.8
20260903133903 83 39 9.0 18.0 0.00 0.00 0.00 1 1013.8
20260903133824 83 39 9.0 16.0 0.00 0.00 0.00 1 1013.8
20260903133726 83 38 8.0 16.0 0.00 0.00 0.00 1 1013.9
20260903133603 83 38 8.0 16.0 0.00 0.00 0.00 1 1013.9
20260903133503 83 38 7.0 16.0 0.00 0.00 0.00 1 1013.9
20260903133403 83 41 7.0 16.0 0.00 0.00 0.00 1 1013.9
20260903133303 82 44 7.0 16.0 0.00 0.00 0.00 1 1013.8
20260903133203 82 45 6.0 15.0 0.00 0.00 0.00 1 1013.9
20260903133103 82 44 6.0 15.0 0.00 0.00 0.00 1 1013.9
20260903133003 82 44 6.0 15.0 0.00 0.00 0.00 1 1013.9
20260903132903 82 45 6.0 15.0 0.00 0.00 0.00 1 1013.9
20260903132803 82 45 5.0 13.0 0.00 0.00 0.00 1 1013.9
20260903132703 82 46 6.0 13.0 0.00 0.00 0.00 1 1013.9
20260903132603 82 47 6.0 13.0 0.00 0.00 0.00 1 1013.9
20260903132503 82 48 6.0 13.0 0.00 0.00 0.00 1 1014.0
20260903132403 82 46 6.0 14.0 0.00 0.00 0.00 1 1014.0
20260903132324 82 46 6.0 14.0 0.00 0.00 0.00 1 1014.0
20260903132203 82 45 6.0 14.0 0.00 0.00 0.00 1 1013.9
20260903132124 82 46 6.0 14.0 0.00 0.00 0.00 1 1013.9
20260903132003 82 45 6.0 14.0 0.00 0.00 0.00 1 1014.0
20260903131903 81 44 7.0 14.0 0.00 0.00 0.00 1 1014.0
20260903131803 81 43 7.0 14.0 0.00 0.00 0.00 1 1013.9
20260903131703 81 43 7.0 14.0 0.00 0.00 0.00 1 1014.0
20260903131603 81 41 7.0 14.0 0.00 0.00 0.00 1 1014.0
20260903131503 81 40 7.0 14.0 0.00 0.00 0.00 1 1014.0
20260903131403 81 38 7.0 14.0 0.00 0.00 0.00 1 1014.0
20260903131303 81 38 6.0 14.0 0.00 0.00 0.00 1 1014.0
20260903131203 81 37 7.0 14.0 0.00 0.00 0.00 1 1014.0
20260903131103 81 39 7.0 14.0 0.00 0.00 0.00 1 1014.0
20260903131003 81 39 7.0 15.0 0.00 0.00 0.00 1 1014.0
20260903130903 81 38 7.0 15.0 0.00 0.00 0.00 1 1014.0
20260903130803 81 40 7.0 15.0 0.00 0.00 0.00 1 1014.0
20260903130724 81 39 7.0 15.0 0.00 0.00 0.00 1 1014.0
20260903130603 81 39 7.0 15.0 0.00 0.00 0.00 1 1014.0
20260903130503 81 38 7.0 15.0 0.00 0.00 0.00 1 1014.0
20260903130403 81 39 7.0 15.0 0.00 0.00 0.00 1 1014.0
20260903130303 81 39 7.0 15.0 0.00 0.00 0.00 1 1013.9
20260903130203 81 40 7.0 15.0 0.00 0.00 0.00 1 1014.0
20260903130003 81 39 7.0 14.0 0.00 0.00 0.00 1 1014.0
20260903125903 81 38 7.0 14.0 0.00 0.00 0.00 1 1014.0
20260903125824 81 39 7.0 14.0 0.00 0.00 0.00 1 1013.9
20260903125724 81 39 7.0 13.0 0.00 0.00 0.00 1 1014.0
20260903125603 81 40 7.0 13.0 0.00 0.00 0.00 1 1014.0
20260903125503 81 42 7.0 13.0 0.00 0.00 0.00 1 1013.9
20260903125403 81 42 7.0 13.0 0.00 0.00 0.00 1 1013.9
20260903125324 81 42 7.0 13.0 0.00 0.00 0.00 1 1013.9
20260903125203 81 40 7.0 13.0 0.00 0.00 0.00 1 1013.9
20260903125103 81 40 7.0 13.0 0.00 0.00 0.00 1 1013.9
20260903125003 81 39 7.0 13.0 0.00 0.00 0.00 1 1013.9
20260903124903 81 40 7.0 13.0 0.00 0.00 0.00 1 1013.8
20260903124803 81 41 6.0 13.0 0.00 0.00 0.00 1 1013.8
20260903124703 81 43 7.0 13.0 0.00 0.00 0.00 1 1013.8
20260903124624 81 42 7.0 13.0 0.00 0.00 0.00 1 1013.8
20260903124503 81 41 6.0 13.0 0.00 0.00 0.00 1 1013.8
20260903124403 81 42 6.0 13.0 0.00 0.00 0.00 1 1013.8
20260903124303 81 44 7.0 13.0 0.00 0.00 0.00 1 1013.8
20260903124203 81 43 7.0 13.0 0.00 0.00 0.00 1 1013.8
20260903124124 81 44 7.0 13.0 0.00 0.00 0.00 1 1013.8
20260903124003 81 45 7.0 13.0 0.00 0.00 0.00 1 1013.8
20260903123903 81 43 7.0 13.0 0.00 0.00 0.00 1 1013.8
20260903123803 81 42 7.0 13.0 0.00 0.00 0.00 1 1013.8
20260903123703 81 41 7.0 13.0 0.00 0.00 0.00 1 1013.8
20260903123624 81 42 7.0 13.0 0.00 0.00 0.00 1 1013.8
20260903123503 81 42 7.0 13.0 0.00 0.00 0.00 1 1013.8
20260903123403 81 42 7.0 13.0 0.00 0.00 0.00 1 1013.7
20260903123324 81 41 7.0 14.0 0.00 0.00 0.00 1 1013.7
20260903123203 81 40 7.0 14.0 0.00 0.00 0.00 1 1013.7
20260903123124 81 41 7.0 14.0 0.00 0.00 0.00 1 1013.7
20260903123003 81 40 7.0 14.0 0.00 0.00 0.00 1 1013.7
20260903122903 81 41 7.0 14.0 0.00 0.00 0.00 1 1013.7
20260903122824 81 41 7.0 14.0 0.00 0.00 0.00 1 1013.8
20260903122703 81 40 7.0 14.0 0.00 0.00 0.00 1 1013.6
20260903122603 81 40 7.0 14.0 0.00 0.00 0.00 1 1013.7
20260903122524 81 39 7.0 14.0 0.00 0.00 0.00 1 1013.6
20260903122403 81 39 7.0 14.0 0.00 0.00 0.00 1 1013.7
20260903122305 81 40 7.0 13.0 0.00 0.00 0.00 1 1013.6
20260903122203 81 40 7.0 13.0 0.00 0.00 0.00 1 1013.6
20260903122103 81 40 7.0 13.0 0.00 0.00 0.00 1 1013.6
20260903122003 81 42 7.0 13.0 0.00 0.00 0.00 1 1013.6
20260903121903 81 44 7.0 13.0 0.00 0.00 0.00 1 1013.6
20260903121803 81 44 7.0 14.0 0.00 0.00 0.00 1 1013.6
20260903121703 81 44 7.0 14.0 0.00 0.00 0.00 1 1013.6
20260903121624 81 43 7.0 14.0 0.00 0.00 0.00 1 1013.6
20260903121524 81 44 6.0 14.0 0.00 0.00 0.00 1 1013.6
20260903121403 81 44 6.0 14.0 0.00 0.00 0.00 1 1013.7
20260903121324 80 45 6.0 14.0 0.00 0.00 0.00 1 1013.6
20260903121203 80 44 6.0 14.0 0.00 0.00 0.00 1 1013.6
20260903121103 80 43 6.0 14.0 0.00 0.00 0.00 1 1013.6
20260903121003 80 42 5.0 14.0 0.00 0.00 0.00 1 1013.6
20260903120903 80 41 5.0 14.0 0.00 0.00 0.00 1 1013.6
20260903120803 80 40 5.0 11.0 0.00 0.00 0.00 1 1013.6
20260903120703 80 40 5.0 11.0 0.00 0.00 0.00 1 1013.6
20260903120603 80 39 5.0 10.0 0.00 0.00 0.00 1 1013.6
20260903120503 80 37 6.0 12.0 0.00 0.00 0.00 1 1013.7
20260903120403 80 39 6.0 12.0 0.00 0.00 0.00 1 1013.7
20260903120303 80 39 5.0 12.0 0.00 0.00 0.00 1 1013.6
20260903120224 80 38 5.0 12.0 0.00 0.00 0.00 1 1013.6
20260903120003 80 39 6.0 12.0 0.00 0.00 0.00 1 1013.6
20260903115903 80 39 6.0 12.0 0.00 0.00 0.00 1 1013.5
20260903115803 80 40 6.0 12.0 0.00 0.00 0.00 1 1013.5
20260903115703 80 40 6.0 12.0 0.00 0.00 0.00 1 1013.5
20260903115603 80 42 5.0 12.0 0.00 0.00 0.00 1 1013.5
20260903115524 80 43 5.0 12.0 0.00 0.00 0.00 1 1013.5
20260903115403 80 43 5.0 10.0 0.00 0.00 0.00 1 1013.5
20260903115324 80 44 5.0 10.0 0.00 0.00 0.00 1 1013.5
20260903115203 80 44 5.0 10.0 0.00 0.00 0.00 1 1013.6
20260903115103 80 46 4.0 10.0 0.00 0.00 0.00 1 1013.5
20260903115003 80 47 4.0 10.0 0.00 0.00 0.00 1 1013.5
20260903114903 80 48 4.0 8.0 0.00 0.00 0.00 1 1013.5
20260903114803 80 50 4.0 8.0 0.00 0.00 0.00 1 1013.5
20260903114703 80 51 4.0 8.0 0.00 0.00 0.00 1 1013.6
20260903114603 80 52 4.0 8.0 0.00 0.00 0.00 1 1013.5
20260903114503 80 53 4.0 8.0 0.00 0.00 0.00 1 1013.5
20260903114403 80 52 4.0 8.0 0.00 0.00 0.00 1 1013.5
20260903114303 80 50 4.0 8.0 0.00 0.00 0.00 1 1013.5
20260903114203 80 50 3.0 7.0 0.00 0.00 0.00 1 1013.5
20260903114104 80 47 4.0 8.0 0.00 0.00 0.00 1 1013.5
20260903114004 80 46 4.0 8.0 0.00 0.00 0.00 1 1013.5
20260903113904 80 42 4.0 10.0 0.00 0.00 0.00 1 1013.5
20260903113804 80 40 4.0 12.0 0.00 0.00 0.00 1 1013.5
20260903113704 80 39 5.0 12.0 0.00 0.00 0.00 1 1013.5
20260903113625 80 36 5.0 12.0 0.00 0.00 0.00 1 1013.5
20260903113504 80 31 5.0 12.0 0.00 0.00 0.00 1 1013.5
20260903113405 81 30 5.0 12.0 0.00 0.00 0.00 1 1013.5
20260903113325 81 30 5.0 12.0 0.00 0.00 0.00 1 1013.5
20260903113225 81 30 5.0 12.0 0.00 0.00 0.00 1 1013.4
20260903113104 81 29 5.0 12.0 0.00 0.00 0.00 1 1013.5
20260903113025 81 30 5.0 12.0 0.00 0.00 0.00 1 1013.5
20260903112925 81 32 5.0 12.0 0.00 0.00 0.00 1 1013.5
20260903112804 81 32 6.0 13.0 0.00 0.00 0.00 1 1013.5
20260903112704 81 34 5.0 13.0 0.00 0.00 0.00 1 1013.5
20260903112604 81 35 5.0 13.0 0.00 0.00 0.00 1 1013.5
20260903112505 81 38 5.0 13.0 0.00 0.00 0.00 1 1013.5
20260903112425 81 40 5.0 13.0 0.00 0.00 0.00 1 1013.5
20260903112305 81 40 5.0 13.0 0.00 0.00 0.00 1 1013.5
20260903112205 81 41 5.0 13.0 0.00 0.00 0.00 1 1013.5
20260903112104 81 43 5.0 13.0 0.00 0.00 0.00 1 1013.5
20260903112025 81 41 5.0 13.0 0.00 0.00 0.00 1 1013.5
20260903111904 81 40 5.0 13.0 0.00 0.00 0.00 1 1013.5
20260903111804 81 38 5.0 11.0 0.00 0.00 0.00 1 1013.5
20260903111725 81 36 5.0 11.0 0.00 0.00 0.00 1 1013.4
20260903111604 81 36 5.0 11.0 0.00 0.00 0.00 1 1013.4
20260903111504 81 35 5.0 11.0 0.00 0.00 0.00 1 1013.4
20260903111404 81 35 6.0 14.0 0.00 0.00 0.00 1 1013.4
20260903111306 81 35 6.0 14.0 0.00 0.00 0.00 1 1013.4
20260903111204 81 35 6.0 14.0 0.00 0.00 0.00 1 1013.4
20260903111104 81 35 6.0 14.0 0.00 0.00 0.00 1 1013.4
20260903111004 81 36 6.0 14.0 0.00 0.00 0.00 1 1013.5
20260903110904 81 38 6.0 14.0 0.00 0.00 0.00 1 1013.4
20260903110827 81 38 6.0 14.0 0.00 0.00 0.00 1 1013.4
20260903110704 81 38 6.0 14.0 0.00 0.00 0.00 1 1013.4
20260903110604 81 39 6.0 14.0 0.00 0.00 0.00 1 1013.4
20260903110504 81 40 6.0 14.0 0.00 0.00 0.00 1 1013.4
20260903110404 81 42 6.0 14.0 0.00 0.00 0.00 1 1013.4
20260903110325 81 41 6.0 14.0 0.00 0.00 0.00 1 1013.3
20260903110204 81 40 6.0 14.0 0.00 0.00 0.00 1 1013.4
20260903110104 81 41 6.0 14.0 0.00 0.00 0.00 1 1013.4
20260903110004 81 40 6.0 14.0 0.00 0.00 0.00 1 1013.4
20260903105904 81 38 6.0 14.0 0.00 0.00 0.00 1 1013.4
20260903105804 81 38 6.0 14.0 0.00 0.00 0.00 1 1013.4
20260903105705 81 38 6.0 14.0 0.00 0.00 0.00 1 1013.4
20260903105604 81 37 6.0 13.0 0.00 0.00 0.00 1 1013.4
20260903105504 81 35 6.0 13.0 0.00 0.00 0.00 1 1013.4
20260903105404 81 33 6.0 13.0 0.00 0.00 0.00 1 1013.3
20260903105325 81 35 6.0 13.0 0.00 0.00 0.00 1 1013.4
20260903105204 81 38 5.0 11.0 0.00 0.00 0.00 1 1013.3
20260903105104 81 38 5.0 11.0 0.00 0.00 0.00 1 1013.3
20260903105025 81 40 5.0 11.0 0.00 0.00 0.00 1 1013.3
20260903104904 81 41 5.0 11.0 0.00 0.00 0.00 1 1013.3
20260903104825 81 42 5.0 11.0 0.00 0.00 0.00 1 1013.3
20260903104704 81 40 5.0 12.0 0.00 0.00 0.00 1 1013.3
20260903104604 81 41 5.0 12.0 0.00 0.00 0.00 1 1013.3
20260903104504 81 42 5.0 12.0 0.00 0.00 0.00 1 1013.3
20260903104404 81 42 5.0 12.0 0.00 0.00 0.00 1 1013.2
20260903104304 81 41 5.0 12.0 0.00 0.00 0.00 1 1013.3
20260903104204 81 38 5.0 12.0 0.00 0.00 0.00 1 1013.3
20260903104104 81 36 5.0 12.0 0.00 0.00 0.00 1 1013.2
20260903104025 81 35 5.0 12.0 0.00 0.00 0.00 1 1013.2
20260903103904 80 35 5.0 12.0 0.00 0.00 0.00 1 1013.2
20260903103804 80 37 4.0 12.0 0.00 0.00 0.00 1 1013.2
20260903103704 80 37 4.0 11.0 0.00 0.00 0.00 1 1013.2
20260903103604 80 37 4.0 11.0 0.00 0.00 0.00 1 1013.2
20260903103504 80 38 4.0 9.0 0.00 0.00 0.00 1 1013.1
20260903103425 80 38 4.0 9.0 0.00 0.00 0.00 1 1013.2
20260903103325 80 38 5.0 14.0 0.00 0.00 0.00 1 1013.2
20260903103204 80 42 5.0 14.0 0.00 0.00 0.00 1 1013.1
20260903103104 80 42 5.0 14.0 0.00 0.00 0.00 1 1013.2
20260903103004 80 43 5.0 14.0 0.00 0.00 0.00 1 1013.1
20260903102904 80 44 5.0 14.0 0.00 0.00 0.00 1 1013.1
20260903102804 80 44 5.0 14.0 0.00 0.00 0.00 1 1013.1
20260903102704 80 46 5.0 14.0 0.00 0.00 0.00 1 1013.1
20260903102625 80 46 5.0 14.0 0.00 0.00 0.00 1 1013.1
20260903102504 80 46 5.0 14.0 0.00 0.00 0.00 1 1013.1
20260903102404 80 46 5.0 14.0 0.00 0.00 0.00 1 1013.1
20260903102306 80 45 5.0 12.0 0.00 0.00 0.00 1 1013.1
20260903102204 80 42 6.0 12.0 0.00 0.00 0.00 1 1013.1
20260903102104 80 41 6.0 14.0 0.00 0.00 0.00 1 1013.1
20260903102004 80 40 6.0 14.0 0.00 0.00 0.00 1 1013.1
20260903101906 80 36 6.0 14.0 0.00 0.00 0.00 1 1013.2
20260903101804 80 34 6.0 14.0 0.00 0.00 0.00 1 1013.1
20260903101704 80 33 6.0 14.0 0.00 0.00 0.00 1 1013.1
20260903101604 80 34 6.0 14.0 0.00 0.00 0.00 1 1013.1
20260903101504 80 34 6.0 14.0 0.00 0.00 0.00 1 1013.1
20260903101404 80 33 6.0 14.0 0.00 0.00 0.00 1 1013.1
20260903101304 80 33 5.0 14.0 0.00 0.00 0.00 1 1013.2
20260903101204 80 35 5.0 14.0 0.00 0.00 0.00 1 1013.2
20260903101105 80 37 5.0 11.0 0.00 0.00 0.00 1 1013.1
20260903101004 80 39 5.0 11.0 0.00 0.00 0.00 1 1013.1
20260903100904 80 44 5.0 11.0 0.00 0.00 0.00 1 1013.1
20260903100804 80 44 5.0 11.0 0.00 0.00 0.00 1 1013.1
20260903100704 80 44 5.0 11.0 0.00 0.00 0.00 1 1013.1
20260903100625 80 43 5.0 11.0 0.00 0.00 0.00 1 1013.1
20260903100504 80 43 5.0 11.0 0.00 0.00 0.00 1 1013.1
20260903100404 80 45 4.0 9.0 0.00 0.00 0.00 1 1013.1
20260903100304 80 47 4.0 9.0 0.00 0.00 0.00 1 1013.1
20260903100204 80 47 5.0 9.0 0.00 0.00 0.00 1 1013.1
20260903100104 80 47 5.0 9.0 0.00 0.00 0.00 1 1013.1
20260903100004 80 47 5.0 9.0 0.00 0.00 0.00 1 1013.1
20260903095925 80 45 5.0 9.0 0.00 0.00 0.00 1 1013.1
20260903095804 80 46 4.0 9.0 0.00 0.00 0.00 1 1013.1
20260903095727 80 47 4.0 9.0 0.00 0.00 0.00 1 1013.1
20260903095604 80 48 4.0 9.0 0.00 0.00 0.00 1 1013.2
20260903095525 80 49 4.0 9.0 0.00 0.00 0.00 1 1013.2
20260903095404 80 49 5.0 9.0 0.00 0.00 0.00 1 1013.2
20260903095306 80 49 5.0 9.0 0.00 0.00 0.00 1 1013.2
20260903095225 80 49 5.0 9.0 0.00 0.00 0.00 1 1013.2
20260903095104 80 48 5.0 9.0 0.00 0.00 0.00 1 1013.2
20260903095004 80 46 5.0 9.0 0.00 0.00 0.00 1 1013.3
20260903094904 80 45 6.0 13.0 0.00 0.00 0.00 1 1013.2
20260903094804 80 44 6.0 13.0 0.00 0.00 0.00 1 1013.3
20260903094704 80 44 6.0 13.0 0.00 0.00 0.00 1 1013.3
20260903094625 80 44 6.0 13.0 0.00 0.00 0.00 1 1013.3
20260903094525 80 44 6.0 13.0 0.00 0.00 0.00 1 1013.3
20260903094404 80 43 6.0 13.0 0.00 0.00 0.00 1 1013.3
20260903094306 80 42 6.0 13.0 0.00 0.00 0.00 1 1013.3
20260903094204 80 43 6.0 13.0 0.00 0.00 0.00 1 1013.3
20260903094104 80 42 6.0 13.0 0.00 0.00 0.00 1 1013.3
20260903094004 80 41 6.0 13.0 0.00 0.00 0.00 1 1013.3
20260903093904 80 42 6.0 10.0 0.00 0.00 0.00 1 1013.3
20260903093804 80 42 6.0 11.0 0.00 0.00 0.00 1 1013.3
20260903093704 80 42 6.0 11.0 0.00 0.00 0.00 1 1013.3
20260903093604 80 42 6.0 11.0 0.00 0.00 0.00 1 1013.3
20260903093504 80 41 6.0 12.0 0.00 0.00 0.00 1 1013.3
20260903093404 80 41 6.0 12.0 0.00 0.00 0.00 1 1013.4
20260903093304 80 41 6.0 12.0 0.00 0.00 0.00 1 1013.3
20260903093204 80 42 6.0 12.0 0.00 0.00 0.00 1 1013.4
20260903093104 80 44 6.0 12.0 0.00 0.00 0.00 1 1013.4
20260903093004 80 45 6.0 12.0 0.00 0.00 0.00 1 1013.4
20260903092904 80 45 5.0 12.0 0.00 0.00 0.00 1 1013.4
20260903092804 80 46 5.0 12.0 0.00 0.00 0.00 1 1013.4
20260903092725 80 46 5.0 12.0 0.00 0.00 0.00 1 1013.4
20260903092604 80 46 5.0 12.0 0.00 0.00 0.00 1 1013.4
20260903092504 80 47 5.0 11.0 0.00 0.00 0.00 1 1013.4
20260903092404 80 46 5.0 10.0 0.00 0.00 0.00 1 1013.4
20260903092325 80 47 5.0 10.0 0.00 0.00 0.00 1 1013.4
20260903092204 81 47 5.0 10.0 0.00 0.00 0.00 1 1013.4
20260903092104 81 47 5.0 10.0 0.00 0.00 0.00 1 1013.4
20260903092004 81 47 5.0 10.0 0.00 0.00 0.00 1 1013.3
20260903091904 81 47 4.0 10.0 0.00 0.00 0.00 1 1013.4
20260903091825 81 46 5.0 10.0 0.00 0.00 0.00 1 1013.4
20260903091704 81 43 5.0 12.0 0.00 0.00 0.00 1 1013.4
20260903091604 81 42 5.0 12.0 0.00 0.00 0.00 1 1013.4
20260903091504 81 42 5.0 12.0 0.00 0.00 0.00 1 1013.4
20260903091404 81 43 5.0 12.0 0.00 0.00 0.00 1 1013.5
20260903091304 81 42 6.0 12.0 0.00 0.00 0.00 1 1013.4
20260903091204 81 41 6.0 12.0 0.00 0.00 0.00 1 1013.5
20260903091104 81 40 6.0 15.0 0.00 0.00 0.00 1 1013.5
20260903091004 81 40 7.0 15.0 0.00 0.00 0.00 1 1013.5
20260903090904 81 41 7.0 15.0 0.00 0.00 0.00 1 1013.5
20260903090804 81 44 7.0 15.0 0.00 0.00 0.00 1 1013.5
20260903090706 81 45 7.0 15.0 0.00 0.00 0.00 1 1013.5
20260903090604 81 45 7.0 15.0 0.00 0.00 0.00 1 1013.5
20260903090504 81 44 7.0 15.0 0.00 0.00 0.00 1 1013.5
20260903090404 81 43 7.0 15.0 0.00 0.00 0.00 1 1013.5
20260903090304 81 43 7.0 15.0 0.00 0.00 0.00 1 1013.4
20260903090204 81 43 7.0 15.0 0.00 0.00 0.00 1 1013.4
20260903090104 81 45 6.0 14.0 0.00 0.00 0.00 1 1013.4
20260903090004 81 46 6.0 14.0 0.00 0.00 0.00 1 1013.4
20260903085904 81 44 7.0 14.0 0.00 0.00 0.00 1 1013.5
20260903085804 81 43 7.0 14.0 0.00 0.00 0.00 1 1013.4
20260903085704 81 43 6.0 14.0 0.00 0.00 0.00 1 1013.5
20260903085604 81 43 6.0 14.0 0.00 0.00 0.00 1 1013.5
20260903085504 81 45 6.0 14.0 0.00 0.00 0.00 1 1013.4